Time,TemperatureF,DewpointF,PressureIn,WindDirection,WindDirectionDegrees,WindSpeedMPH,WindSpeedGustMPH,Humidity,HourlyPrecipIn,Conditions,Clouds,dailyrainin,SoftwareType,DateUTC
2013-04-06 00:00:00,33.1,22.6,30.13,ESE,113,0.0,7.0,65,0.00,,---,0.01,VWS V14.00,2013-04-06 04:00:00,
2013-04-06 00:05:00,32.9,22.4,30.13,ESE,113,0.0,0.0,65,0.00,,---,0.00,VWS V14.00,2013-04-06 04:05:00,
2013-04-06 00:06:00,32.9,22.4,30.13,ESE,113,0.0,0.0,65,0.00,,---,0.00,VWS V14.00,2013-04-06 04:06:00,
2013-04-06 00:10:00,32.8,22.7,30.13,East,96,0.0,2.0,66,0.00,,---,0.00,VWS V14.00,2013-04-06 04:10:00,
2013-04-06 00:11:00,32.7,22.6,30.13,East,96,2.0,4.0,66,0.00,,---,0.00,VWS V14.00,2013-04-06 04:11:00,
2013-04-06 00:16:00,32.5,22.4,30.13,East,79,0.0,6.0,66,0.00,,---,0.00,VWS V14.00,2013-04-06 04:16:00,
2013-04-06 00:17:00,32.5,22.4,30.13,East,79,0.0,6.0,66,0.00,,---,0.00,VWS V14.00,2013-04-06 04:17:00,
2013-04-06 00:21:00,32.4,22.7,30.13,East,100,1.0,6.0,67,0.00,,---,0.00,VWS V14.00,2013-04-06 04:21:00,
2013-04-06 00:22:00,32.4,22.7,30.13,East,100,0.0,6.0,67,0.00,,---,0.00,VWS V14.00,2013-04-06 04:22:00,
2013-04-06 00:26:00,32.2,22.5,30.13,ESE,103,0.0,6.0,67,0.00,,---,0.00,VWS V14.00,2013-04-06 04:26:00,
2013-04-06 00:27:00,32.2,22.5,30.13,ESE,103,0.0,6.0,67,0.00,,---,0.00,VWS V14.00,2013-04-06 04:27:00,
2013-04-06 00:32:00,32.1,22.4,30.13,ESE,103,0.0,6.0,67,0.00,,---,0.00,VWS V14.00,2013-04-06 04:32:00,
2013-04-06 00:33:00,32.1,22.4,30.13,East,99,0.0,6.0,67,0.00,,---,0.00,VWS V14.00,2013-04-06 04:33:00,
2013-04-06 00:37:00,31.9,22.5,30.13,ESE,113,0.0,6.0,68,0.00,,---,0.00,VWS V14.00,2013-04-06 04:37:00,
2013-04-06 00:38:00,31.9,22.5,30.13,ESE,113,0.0,6.0,68,0.00,,---,0.00,VWS V14.00,2013-04-06 04:38:00,
2013-04-06 00:42:00,31.8,22.5,30.13,ESE,113,0.0,6.0,68,0.00,,---,0.00,VWS V14.00,2013-04-06 04:42:00,
2013-04-06 00:43:00,31.8,22.5,30.13,ESE,113,0.0,6.0,68,0.00,,---,0.00,VWS V14.00,2013-04-06 04:43:00,
2013-04-06 00:47:00,31.6,22.3,30.13,ESE,109,2.0,6.0,68,0.00,,---,0.00,VWS V14.00,2013-04-06 04:47:00,
2013-04-06 00:48:00,31.6,22.3,30.13,ESE,109,0.0,6.0,68,0.00,,---,0.00,VWS V14.00,2013-04-06 04:48:00,
2013-04-06 00:52:00,31.6,22.3,30.13,East,79,1.0,6.0,68,0.00,,---,0.00,VWS V14.00,2013-04-06 04:52:00,
2013-04-06 00:53:00,31.6,22.3,30.13,East,79,0.0,6.0,68,0.00,,---,0.00,VWS V14.00,2013-04-06 04:53:00,
2013-04-06 00:57:00,31.5,22.2,30.13,East,85,2.0,6.0,68,0.00,,---,0.00,VWS V14.00,2013-04-06 04:57:00,
2013-04-06 00:58:00,31.5,22.2,30.13,East,85,0.0,6.0,68,0.00,,---,0.00,VWS V14.00,2013-04-06 04:58:00,
2013-04-06 01:02:00,31.3,22.3,30.13,ESE,107,0.0,2.0,69,0.00,,---,0.00,VWS V14.00,2013-04-06 05:02:00,
2013-04-06 01:03:00,31.3,22.3,30.13,ESE,107,0.0,2.0,69,0.00,,---,0.00,VWS V14.00,2013-04-06 05:03:00,
2013-04-06 01:04:00,31.3,22.3,30.13,ESE,107,0.0,4.0,69,0.00,,---,0.00,VWS V14.00,2013-04-06 05:04:00,
2013-04-06 01:07:00,31.3,22.3,30.13,ESE,102,1.0,9.0,69,0.00,,---,0.00,VWS V14.00,2013-04-06 05:07:00,
2013-04-06 01:08:00,31.3,22.3,30.13,ESE,102,1.0,9.0,69,0.00,,---,0.00,VWS V14.00,2013-04-06 05:08:00,
2013-04-06 01:09:00,31.2,22.2,30.13,East,100,4.0,9.0,69,0.00,,---,0.00,VWS V14.00,2013-04-06 05:09:00,
2013-04-06 01:10:00,31.2,22.2,30.13,East,96,4.0,9.0,69,0.00,,---,0.00,VWS V14.00,2013-04-06 05:10:00,
2013-04-06 01:13:00,31.2,22.2,30.13,East,99,4.0,9.0,69,0.00,,---,0.00,VWS V14.00,2013-04-06 05:13:00,
2013-04-06 01:15:00,31.2,22.2,30.13,ESE,103,1.0,9.0,69,0.00,,---,0.00,VWS V14.00,2013-04-06 05:15:00,
2013-04-06 01:18:00,31.2,22.2,30.13,East,89,1.0,9.0,69,0.00,,---,0.00,VWS V14.00,2013-04-06 05:18:00,
2013-04-06 01:20:00,31.0,22.4,30.13,East,89,0.0,9.0,70,0.00,,---,0.00,VWS V14.00,2013-04-06 05:20:00,
2013-04-06 01:23:00,31.0,22.4,30.13,East,89,1.0,9.0,70,0.00,,---,0.00,VWS V14.00,2013-04-06 05:23:00,
2013-04-06 01:25:00,31.0,22.4,30.13,East,89,2.0,9.0,70,0.00,,---,0.00,VWS V14.00,2013-04-06 05:25:00,
2013-04-06 01:28:00,31.0,22.4,30.13,East,89,0.0,9.0,70,0.00,,---,0.00,VWS V14.00,2013-04-06 05:28:00,
2013-04-06 01:29:00,30.9,22.3,30.13,East,89,0.0,9.0,70,0.00,,---,0.00,VWS V14.00,2013-04-06 05:29:00,
2013-04-06 01:30:00,30.9,22.3,30.14,East,89,0.0,9.0,70,0.00,,---,0.00,VWS V14.00,2013-04-06 05:30:00,
2013-04-06 01:31:00,30.9,22.3,30.14,East,89,0.0,9.0,70,0.00,,---,0.00,VWS V14.00,2013-04-06 05:31:00,
2013-04-06 01:33:00,30.9,22.3,30.14,East,89,0.0,9.0,70,0.00,,---,0.00,VWS V14.00,2013-04-06 05:33:00,
2013-04-06 01:34:00,30.9,22.3,30.14,East,89,0.0,9.0,70,0.00,,---,0.00,VWS V14.00,2013-04-06 05:34:00,
2013-04-06 01:36:00,30.9,22.3,30.14,East,89,4.0,9.0,70,0.00,,---,0.00,VWS V14.00,2013-04-06 05:36:00,
2013-04-06 01:38:00,30.9,22.3,30.14,East,92,1.0,9.0,70,0.00,,---,0.00,VWS V14.00,2013-04-06 05:38:00,
2013-04-06 01:39:00,30.7,22.1,30.14,East,92,4.0,9.0,70,0.00,,---,0.00,VWS V14.00,2013-04-06 05:39:00,
2013-04-06 01:41:00,30.7,22.1,30.14,SE,130,1.0,9.0,70,0.00,,---,0.00,VWS V14.00,2013-04-06 05:41:00,
2013-04-06 01:42:00,30.7,22.1,30.14,ESE,112,2.0,9.0,70,0.00,,---,0.00,VWS V14.00,2013-04-06 05:42:00,
2013-04-06 01:43:00,30.7,22.1,30.14,East,89,2.0,9.0,70,0.00,,---,0.00,VWS V14.00,2013-04-06 05:43:00,
2013-04-06 01:45:00,30.7,22.1,30.14,East,89,2.0,9.0,70,0.00,,---,0.00,VWS V14.00,2013-04-06 05:45:00,
2013-04-06 01:46:00,30.6,22.0,30.13,East,89,0.0,9.0,70,0.00,,---,0.00,VWS V14.00,2013-04-06 05:46:00,
2013-04-06 01:47:00,30.6,22.0,30.13,East,89,0.0,9.0,70,0.00,,---,0.00,VWS V14.00,2013-04-06 05:47:00,
2013-04-06 01:48:00,30.6,22.0,30.13,East,89,0.0,9.0,70,0.00,,---,0.00,VWS V14.00,2013-04-06 05:48:00,
2013-04-06 01:50:00,30.6,22.0,30.13,East,79,1.0,9.0,70,0.00,,---,0.00,VWS V14.00,2013-04-06 05:50:00,
2013-04-06 01:51:00,30.6,21.6,30.13,East,85,0.0,9.0,69,0.00,,---,0.00,VWS V14.00,2013-04-06 05:51:00,
2013-04-06 01:52:00,30.6,21.6,30.13,East,85,0.0,9.0,69,0.00,,---,0.00,VWS V14.00,2013-04-06 05:52:00,
2013-04-06 01:53:00,30.6,21.6,30.13,East,88,2.0,9.0,69,0.00,,---,0.00,VWS V14.00,2013-04-06 05:53:00,
2013-04-06 01:55:00,30.4,21.5,30.13,East,88,2.0,9.0,69,0.00,,---,0.00,VWS V14.00,2013-04-06 05:55:00,
2013-04-06 01:57:00,30.4,21.5,30.13,East,88,2.0,9.0,69,0.00,,---,0.00,VWS V14.00,2013-04-06 05:57:00,
2013-04-06 01:58:00,30.4,21.5,30.13,East,88,0.0,9.0,69,0.00,,---,0.00,VWS V14.00,2013-04-06 05:58:00,
2013-04-06 02:00:00,30.4,21.5,30.13,East,88,0.0,9.0,69,0.00,,---,0.00,VWS V14.00,2013-04-06 06:00:00,
2013-04-06 02:02:00,30.4,21.5,30.14,East,88,0.0,0.0,69,0.00,,---,0.00,VWS V14.00,2013-04-06 06:02:00,
2013-04-06 02:04:00,30.3,21.4,30.14,East,89,1.0,4.0,69,0.00,,---,0.00,VWS V14.00,2013-04-06 06:04:00,
2013-04-06 02:05:00,30.3,21.4,30.14,East,89,1.0,4.0,69,0.00,,---,0.00,VWS V14.00,2013-04-06 06:05:00,
2013-04-06 02:07:00,30.3,21.4,30.14,East,89,0.0,4.0,69,0.00,,---,0.00,VWS V14.00,2013-04-06 06:07:00,
2013-04-06 02:09:00,30.3,21.4,30.14,East,89,0.0,4.0,69,0.00,,---,0.00,VWS V14.00,2013-04-06 06:09:00,
2013-04-06 02:10:00,30.3,21.4,30.14,East,89,0.0,4.0,69,0.00,,---,0.00,VWS V14.00,2013-04-06 06:10:00,
2013-04-06 02:12:00,30.3,21.4,30.14,East,89,0.0,4.0,69,0.00,,---,0.00,VWS V14.00,2013-04-06 06:12:00,
2013-04-06 02:15:00,30.1,21.2,30.14,East,89,0.0,4.0,69,0.00,,---,0.00,VWS V14.00,2013-04-06 06:15:00,
2013-04-06 02:17:00,30.1,21.2,30.15,East,89,0.0,4.0,69,0.00,,---,0.00,VWS V14.00,2013-04-06 06:17:00,
2013-04-06 02:20:00,30.1,20.8,30.15,East,86,2.0,4.0,68,0.00,,---,0.00,VWS V14.00,2013-04-06 06:20:00,
2013-04-06 02:22:00,30.1,20.8,30.15,East,86,1.0,4.0,68,0.00,,---,0.00,VWS V14.00,2013-04-06 06:22:00,
2013-04-06 02:25:00,30.1,20.8,30.15,East,86,1.0,4.0,68,0.00,,---,0.00,VWS V14.00,2013-04-06 06:25:00,
2013-04-06 02:27:00,30.0,20.7,30.15,East,88,2.0,4.0,68,0.00,,---,0.00,VWS V14.00,2013-04-06 06:27:00,
2013-04-06 02:28:00,30.0,20.7,30.15,East,88,2.0,4.0,68,0.00,,---,0.00,VWS V14.00,2013-04-06 06:28:00,
2013-04-06 02:30:00,30.0,20.7,30.15,East,88,0.0,4.0,68,0.00,,---,0.00,VWS V14.00,2013-04-06 06:30:00,
2013-04-06 02:31:00,30.0,20.7,30.15,East,88,0.0,4.0,68,0.00,,---,0.00,VWS V14.00,2013-04-06 06:31:00,
2013-04-06 02:33:00,30.0,20.7,30.15,East,93,1.0,6.0,68,0.00,,---,0.00,VWS V14.00,2013-04-06 06:33:00,
2013-04-06 02:35:00,30.0,20.7,30.15,East,93,2.0,6.0,68,0.00,,---,0.00,VWS V14.00,2013-04-06 06:35:00,
2013-04-06 02:36:00,30.0,20.7,30.15,East,92,2.0,6.0,68,0.00,,---,0.00,VWS V14.00,2013-04-06 06:36:00,
2013-04-06 02:38:00,29.8,20.5,30.15,East,93,4.0,6.0,68,0.00,,---,0.00,VWS V14.00,2013-04-06 06:38:00,
2013-04-06 02:39:00,29.8,20.5,30.15,ESE,109,2.0,6.0,68,0.00,,---,0.00,VWS V14.00,2013-04-06 06:39:00,
2013-04-06 02:40:00,29.8,20.5,30.15,ESE,109,0.0,6.0,68,0.00,,---,0.00,VWS V14.00,2013-04-06 06:40:00,
2013-04-06 02:41:00,29.8,20.5,30.15,ESE,113,2.0,6.0,68,0.00,,---,0.00,VWS V14.00,2013-04-06 06:41:00,
2013-04-06 02:43:00,29.8,20.5,30.15,East,82,0.0,6.0,68,0.00,,---,0.00,VWS V14.00,2013-04-06 06:43:00,
2013-04-06 02:44:00,29.8,20.5,30.15,East,82,1.0,6.0,68,0.00,,---,0.00,VWS V14.00,2013-04-06 06:44:00,
2013-04-06 02:45:00,29.8,20.5,30.15,East,82,2.0,6.0,68,0.00,,---,0.00,VWS V14.00,2013-04-06 06:45:00,
2013-04-06 02:46:00,29.8,20.5,30.14,East,82,0.0,6.0,68,0.00,,---,0.00,VWS V14.00,2013-04-06 06:46:00,
2013-04-06 02:48:00,29.8,20.2,30.14,East,82,2.0,6.0,67,0.00,,---,0.00,VWS V14.00,2013-04-06 06:48:00,
2013-04-06 02:49:00,29.8,20.2,30.14,East,82,2.0,6.0,67,0.00,,---,0.00,VWS V14.00,2013-04-06 06:49:00,
2013-04-06 02:51:00,29.7,20.1,30.14,East,86,4.0,6.0,67,0.00,,---,0.00,VWS V14.00,2013-04-06 06:51:00,
2013-04-06 02:53:00,29.7,20.1,30.14,East,88,0.0,6.0,67,0.00,,---,0.00,VWS V14.00,2013-04-06 06:53:00,
2013-04-06 02:54:00,29.7,20.1,30.14,East,88,0.0,6.0,67,0.00,,---,0.00,VWS V14.00,2013-04-06 06:54:00,
2013-04-06 02:56:00,29.7,20.1,30.14,East,88,0.0,6.0,67,0.00,,---,0.00,VWS V14.00,2013-04-06 06:56:00,
2013-04-06 02:57:00,29.7,20.1,30.14,East,88,0.0,6.0,67,0.00,,---,0.00,VWS V14.00,2013-04-06 06:57:00,
2013-04-06 02:58:00,29.7,20.1,30.14,East,88,0.0,6.0,67,0.00,,---,0.00,VWS V14.00,2013-04-06 06:58:00,
2013-04-06 02:59:00,29.7,20.1,30.14,East,88,1.0,6.0,67,0.00,,---,0.00,VWS V14.00,2013-04-06 06:59:00,
2013-04-06 03:02:00,29.5,19.9,30.14,East,88,1.0,2.0,67,0.00,,---,0.00,VWS V14.00,2013-04-06 07:02:00,
2013-04-06 03:03:00,29.5,19.9,30.14,East,82,1.0,4.0,67,0.00,,---,0.00,VWS V14.00,2013-04-06 07:03:00,
2013-04-06 03:05:00,29.5,19.9,30.14,East,95,2.0,4.0,67,0.00,,---,0.00,VWS V14.00,2013-04-06 07:05:00,
2013-04-06 03:07:00,29.5,19.9,30.14,East,95,1.0,4.0,67,0.00,,---,0.00,VWS V14.00,2013-04-06 07:07:00,
2013-04-06 03:08:00,29.5,19.9,30.14,East,95,2.0,4.0,67,0.00,,---,0.00,VWS V14.00,2013-04-06 07:08:00,
2013-04-06 03:10:00,29.5,19.9,30.14,East,85,4.0,4.0,67,0.00,,---,0.00,VWS V14.00,2013-04-06 07:10:00,
2013-04-06 03:12:00,29.5,19.9,30.14,East,100,2.0,6.0,67,0.00,,---,0.00,VWS V14.00,2013-04-06 07:12:00,
2013-04-06 03:13:00,29.5,19.9,30.14,East,82,4.0,6.0,67,0.00,,---,0.00,VWS V14.00,2013-04-06 07:13:00,
2013-04-06 03:15:00,29.5,19.9,30.14,East,89,0.0,6.0,67,0.00,,---,0.00,VWS V14.00,2013-04-06 07:15:00,
2013-04-06 03:17:00,29.5,19.9,30.14,East,89,1.0,6.0,67,0.00,,---,0.00,VWS V14.00,2013-04-06 07:17:00,
2013-04-06 03:18:00,29.5,19.9,30.14,East,85,2.0,6.0,67,0.00,,---,0.00,VWS V14.00,2013-04-06 07:18:00,
2013-04-06 03:20:00,29.5,19.9,30.14,East,85,2.0,6.0,67,0.00,,---,0.00,VWS V14.00,2013-04-06 07:20:00,
2013-04-06 03:22:00,29.7,20.1,30.14,East,100,4.0,6.0,67,0.00,,---,0.00,VWS V14.00,2013-04-06 07:22:00,
2013-04-06 03:23:00,29.7,19.8,30.14,East,99,0.0,6.0,66,0.00,,---,0.00,VWS V14.00,2013-04-06 07:23:00,
2013-04-06 03:25:00,29.7,19.8,30.14,East,99,0.0,6.0,66,0.00,,---,0.00,VWS V14.00,2013-04-06 07:25:00,
2013-04-06 03:28:00,29.7,19.8,30.14,East,85,0.0,6.0,66,0.00,,---,0.00,VWS V14.00,2013-04-06 07:28:00,
2013-04-06 03:29:00,29.7,19.8,30.14,East,86,4.0,6.0,66,0.00,,---,0.00,VWS V14.00,2013-04-06 07:29:00,
2013-04-06 03:30:00,29.8,19.8,30.14,East,79,2.0,6.0,66,0.00,,---,0.00,VWS V14.00,2013-04-06 07:30:00,
2013-04-06 03:33:00,29.8,19.8,30.14,ENE,75,4.0,7.0,66,0.00,,---,0.00,VWS V14.00,2013-04-06 07:33:00,
2013-04-06 03:34:00,29.8,19.8,30.14,ENE,75,4.0,7.0,66,0.00,,---,0.00,VWS V14.00,2013-04-06 07:34:00,
2013-04-06 03:35:00,29.8,19.8,30.14,ENE,75,2.0,7.0,66,0.00,,---,0.00,VWS V14.00,2013-04-06 07:35:00,
2013-04-06 03:38:00,30.0,20.0,30.14,ENE,75,4.0,7.0,66,0.00,,---,0.00,VWS V14.00,2013-04-06 07:38:00,
2013-04-06 03:39:00,30.0,20.0,30.14,ENE,75,6.0,7.0,66,0.00,,---,0.00,VWS V14.00,2013-04-06 07:39:00,
2013-04-06 03:40:00,30.0,19.7,30.14,East,82,4.0,7.0,65,0.00,,---,0.00,VWS V14.00,2013-04-06 07:40:00,
2013-04-06 03:44:00,30.1,19.8,30.14,East,88,1.0,7.0,65,0.00,,---,0.00,VWS V14.00,2013-04-06 07:44:00,
2013-04-06 03:45:00,30.1,19.8,30.14,East,100,4.0,7.0,65,0.00,,---,0.00,VWS V14.00,2013-04-06 07:45:00,
2013-04-06 03:49:00,30.1,19.8,30.14,East,82,4.0,7.0,65,0.00,,---,0.00,VWS V14.00,2013-04-06 07:49:00,
2013-04-06 03:50:00,30.3,20.0,30.14,East,82,4.0,7.0,65,0.00,,---,0.00,VWS V14.00,2013-04-06 07:50:00,
2013-04-06 03:51:00,30.3,20.0,30.14,ESE,112,4.0,7.0,65,0.00,,---,0.00,VWS V14.00,2013-04-06 07:51:00,
2013-04-06 03:54:00,30.3,20.0,30.14,East,82,0.0,7.0,65,0.00,,---,0.00,VWS V14.00,2013-04-06 07:54:00,
2013-04-06 03:55:00,30.3,20.0,30.14,East,82,0.0,7.0,65,0.00,,---,0.00,VWS V14.00,2013-04-06 07:55:00,
2013-04-06 03:56:00,30.3,20.0,30.14,East,82,6.0,7.0,65,0.00,,---,0.00,VWS V14.00,2013-04-06 07:56:00,
2013-04-06 03:59:00,30.4,19.7,30.14,ENE,75,4.0,7.0,64,0.00,,---,0.00,VWS V14.00,2013-04-06 07:59:00,
2013-04-06 04:00:00,30.4,19.7,30.14,ENE,72,1.0,7.0,64,0.00,,---,0.00,VWS V14.00,2013-04-06 08:00:00,
2013-04-06 04:01:00,30.4,19.7,30.14,ENE,72,0.0,7.0,64,0.00,,---,0.00,VWS V14.00,2013-04-06 08:01:00,
2013-04-06 04:04:00,30.6,19.9,30.14,East,86,1.0,4.0,64,0.00,,---,0.00,VWS V14.00,2013-04-06 08:04:00,
2013-04-06 04:05:00,30.6,19.9,30.14,East,86,4.0,4.0,64,0.00,,---,0.00,VWS V14.00,2013-04-06 08:05:00,
2013-04-06 04:06:00,30.6,19.9,30.14,East,92,4.0,4.0,64,0.00,,---,0.00,VWS V14.00,2013-04-06 08:06:00,
2013-04-06 04:09:00,30.6,19.9,30.14,East,88,0.0,7.0,64,0.00,,---,0.00,VWS V14.00,2013-04-06 08:09:00,
2013-04-06 04:10:00,30.6,19.9,30.14,East,88,0.0,7.0,64,0.00,,---,0.00,VWS V14.00,2013-04-06 08:10:00,
2013-04-06 04:12:00,30.6,19.9,30.14,East,88,2.0,7.0,64,0.00,,---,0.00,VWS V14.00,2013-04-06 08:12:00,
2013-04-06 04:15:00,30.7,19.6,30.14,East,93,2.0,7.0,63,0.00,,---,0.00,VWS V14.00,2013-04-06 08:15:00,
2013-04-06 04:17:00,30.7,19.6,30.14,East,93,0.0,7.0,63,0.00,,---,0.00,VWS V14.00,2013-04-06 08:17:00,
2013-04-06 04:20:00,30.7,19.2,30.14,East,93,0.0,7.0,62,0.00,,---,0.00,VWS V14.00,2013-04-06 08:20:00,
2013-04-06 04:22:00,30.7,19.2,30.14,East,89,2.0,7.0,62,0.00,,---,0.00,VWS V14.00,2013-04-06 08:22:00,
2013-04-06 04:25:00,30.7,19.2,30.14,East,82,4.0,7.0,62,0.00,,---,0.00,VWS V14.00,2013-04-06 08:25:00,
2013-04-06 04:27:00,30.7,19.2,30.14,East,82,4.0,7.0,62,0.00,,---,0.00,VWS V14.00,2013-04-06 08:27:00,
2013-04-06 04:30:00,30.7,18.9,30.14,East,95,2.0,7.0,61,0.00,,---,0.00,VWS V14.00,2013-04-06 08:30:00,
2013-04-06 04:32:00,30.7,18.9,30.14,East,92,1.0,7.0,61,0.00,,---,0.00,VWS V14.00,2013-04-06 08:32:00,
2013-04-06 04:35:00,30.7,18.9,30.14,East,79,0.0,7.0,61,0.00,,---,0.00,VWS V14.00,2013-04-06 08:35:00,
2013-04-06 04:38:00,30.7,18.9,30.14,East,79,0.0,7.0,61,0.00,,---,0.00,VWS V14.00,2013-04-06 08:38:00,
2013-04-06 04:40:00,30.9,19.0,30.14,East,82,0.0,7.0,61,0.00,,---,0.00,VWS V14.00,2013-04-06 08:40:00,
2013-04-06 04:41:00,30.9,19.0,30.14,East,82,0.0,7.0,61,0.00,,---,0.00,VWS V14.00,2013-04-06 08:41:00,
2013-04-06 04:43:00,30.9,19.0,30.14,East,85,0.0,7.0,61,0.00,,---,0.00,VWS V14.00,2013-04-06 08:43:00,
2013-04-06 04:45:00,30.9,19.0,30.14,ESE,113,4.0,7.0,61,0.00,,---,0.00,VWS V14.00,2013-04-06 08:45:00,
2013-04-06 04:46:00,30.9,19.0,30.14,East,92,4.0,7.0,61,0.00,,---,0.00,VWS V14.00,2013-04-06 08:46:00,
2013-04-06 04:48:00,30.9,19.0,30.14,East,92,4.0,7.0,61,0.00,,---,0.00,VWS V14.00,2013-04-06 08:48:00,
2013-04-06 04:50:00,30.9,19.0,30.14,East,92,0.0,7.0,61,0.00,,---,0.00,VWS V14.00,2013-04-06 08:50:00,
2013-04-06 04:51:00,30.9,19.0,30.14,East,92,0.0,7.0,61,0.00,,---,0.00,VWS V14.00,2013-04-06 08:51:00,
2013-04-06 04:53:00,30.9,19.0,30.14,ESE,112,6.0,7.0,61,0.00,,---,0.00,VWS V14.00,2013-04-06 08:53:00,
2013-04-06 04:55:00,30.9,19.0,30.14,ESE,113,4.0,7.0,61,0.00,,---,0.00,VWS V14.00,2013-04-06 08:55:00,
2013-04-06 04:56:00,30.9,19.0,30.14,ESE,113,1.0,7.0,61,0.00,,---,0.00,VWS V14.00,2013-04-06 08:56:00,
2013-04-06 04:57:00,31.0,19.1,30.14,East,96,1.0,7.0,61,0.00,,---,0.00,VWS V14.00,2013-04-06 08:57:00,
2013-04-06 04:58:00,31.0,19.1,30.14,East,95,1.0,7.0,61,0.00,,---,0.00,VWS V14.00,2013-04-06 08:58:00,
2013-04-06 05:00:00,31.0,19.1,30.14,East,96,0.0,7.0,61,0.00,,---,0.00,VWS V14.00,2013-04-06 09:00:00,
2013-04-06 05:02:00,31.0,19.1,30.14,East,96,0.0,0.0,61,0.00,,---,0.00,VWS V14.00,2013-04-06 09:02:00,
2013-04-06 05:03:00,31.0,19.1,30.14,East,93,2.0,4.0,61,0.00,,---,0.00,VWS V14.00,2013-04-06 09:03:00,
2013-04-06 05:05:00,31.0,19.1,30.14,East,89,0.0,6.0,61,0.00,,---,0.00,VWS V14.00,2013-04-06 09:05:00,
2013-04-06 05:07:00,31.0,18.8,30.14,ESE,113,2.0,6.0,60,0.00,,---,0.00,VWS V14.00,2013-04-06 09:07:00,
2013-04-06 05:08:00,31.0,18.8,30.14,East,99,2.0,7.0,60,0.00,,---,0.00,VWS V14.00,2013-04-06 09:08:00,
2013-04-06 05:11:00,31.2,19.0,30.14,East,92,6.0,8.0,60,0.00,,---,0.00,VWS V14.00,2013-04-06 09:11:00,
2013-04-06 05:12:00,31.2,19.0,30.14,East,89,4.0,8.0,60,0.00,,---,0.00,VWS V14.00,2013-04-06 09:12:00,
2013-04-06 05:13:00,31.2,19.0,30.14,East,88,2.0,8.0,60,0.00,,---,0.00,VWS V14.00,2013-04-06 09:13:00,
2013-04-06 05:17:00,31.2,19.0,30.14,East,88,1.0,8.0,60,0.00,,---,0.00,VWS V14.00,2013-04-06 09:17:00,
2013-04-06 05:18:00,31.3,19.0,30.14,East,88,2.0,8.0,60,0.00,,---,0.00,VWS V14.00,2013-04-06 09:18:00,
2013-04-06 05:22:00,31.3,18.6,30.14,ENE,78,0.0,8.0,59,0.00,,---,0.00,VWS V14.00,2013-04-06 09:22:00,
2013-04-06 05:23:00,31.3,18.6,30.14,East,79,4.0,8.0,59,0.00,,---,0.00,VWS V14.00,2013-04-06 09:23:00,
2013-04-06 05:27:00,31.3,18.6,30.14,East,96,6.0,8.0,59,0.00,,---,0.00,VWS V14.00,2013-04-06 09:27:00,
2013-04-06 05:29:00,31.5,18.4,30.14,East,85,1.0,8.0,58,0.00,,---,0.00,VWS V14.00,2013-04-06 09:29:00,
2013-04-06 05:32:00,31.5,18.8,30.14,East,96,1.0,8.0,59,0.00,,---,0.00,VWS V14.00,2013-04-06 09:32:00,
2013-04-06 05:34:00,31.5,18.8,30.14,East,95,4.0,8.0,59,0.00,,---,0.00,VWS V14.00,2013-04-06 09:34:00,
2013-04-06 05:37:00,31.6,18.9,30.14,East,79,4.0,8.0,59,0.00,,---,0.00,VWS V14.00,2013-04-06 09:37:00,
2013-04-06 05:38:00,31.6,18.9,30.14,ESE,102,7.0,8.0,59,0.00,,---,0.00,VWS V14.00,2013-04-06 09:38:00,
2013-04-06 05:39:00,31.6,18.9,30.14,ENE,65,2.0,8.0,59,0.00,,---,0.00,VWS V14.00,2013-04-06 09:39:00,
2013-04-06 05:42:00,31.6,18.9,30.14,East,82,4.0,8.0,59,0.00,,---,0.00,VWS V14.00,2013-04-06 09:42:00,
2013-04-06 05:43:00,31.6,18.9,30.14,East,86,7.0,8.0,59,0.00,,---,0.00,VWS V14.00,2013-04-06 09:43:00,
2013-04-06 05:44:00,31.6,18.9,30.14,East,89,6.0,8.0,59,0.00,,---,0.00,VWS V14.00,2013-04-06 09:44:00,
2013-04-06 05:48:00,31.6,18.9,30.15,East,100,4.0,8.0,59,0.00,,---,0.00,VWS V14.00,2013-04-06 09:48:00,
2013-04-06 05:49:00,31.6,18.5,30.15,East,89,4.0,8.0,58,0.00,,---,0.00,VWS V14.00,2013-04-06 09:49:00,
2013-04-06 05:53:00,31.6,18.5,30.15,ENE,72,1.0,8.0,58,0.00,,---,0.00,VWS V14.00,2013-04-06 09:53:00,
2013-04-06 05:54:00,31.6,18.5,30.15,ENE,78,2.0,8.0,58,0.00,,---,0.00,VWS V14.00,2013-04-06 09:54:00,
2013-04-06 05:58:00,31.6,18.5,30.15,East,82,0.0,8.0,58,0.00,,---,0.00,VWS V14.00,2013-04-06 09:58:00,
2013-04-06 06:00:00,31.6,18.5,30.15,East,85,0.0,8.0,58,0.00,,---,0.00,VWS V14.00,2013-04-06 10:00:00,
2013-04-06 06:03:00,31.8,19.1,30.15,ESE,120,2.0,7.0,59,0.00,,---,0.00,VWS V14.00,2013-04-06 10:03:00,
2013-04-06 06:04:00,31.8,19.1,30.15,SE,127,4.0,7.0,59,0.00,,---,0.00,VWS V14.00,2013-04-06 10:04:00,
2013-04-06 06:05:00,31.8,19.1,30.15,East,79,4.0,7.0,59,0.00,,---,0.00,VWS V14.00,2013-04-06 10:05:00,
2013-04-06 06:08:00,31.8,19.1,30.15,East,92,4.0,7.0,59,0.00,,---,0.00,VWS V14.00,2013-04-06 10:08:00,
2013-04-06 06:09:00,31.8,19.1,30.15,SE,127,7.0,10.0,59,0.00,,---,0.00,VWS V14.00,2013-04-06 10:09:00,
2013-04-06 06:10:00,31.8,19.1,30.15,East,79,4.0,10.0,59,0.00,,---,0.00,VWS V14.00,2013-04-06 10:10:00,
2013-04-06 06:11:00,31.8,19.1,30.15,East,79,2.0,10.0,59,0.00,,---,0.00,VWS V14.00,2013-04-06 10:11:00,
2013-04-06 06:13:00,31.8,19.5,30.15,ENE,72,4.0,10.0,60,0.00,,---,0.00,VWS V14.00,2013-04-06 10:13:00,
2013-04-06 06:14:00,31.8,19.5,30.15,SE,138,6.0,10.0,60,0.00,,---,0.00,VWS V14.00,2013-04-06 10:14:00,
2013-04-06 06:15:00,31.8,19.5,30.15,ESE,120,2.0,10.0,60,0.00,,---,0.00,VWS V14.00,2013-04-06 10:15:00,
2013-04-06 06:16:00,31.8,19.5,30.15,ESE,119,0.0,10.0,60,0.00,,---,0.00,VWS V14.00,2013-04-06 10:16:00,
2013-04-06 06:18:00,31.9,19.6,30.15,East,89,2.0,10.0,60,0.00,,---,0.00,VWS V14.00,2013-04-06 10:18:00,
2013-04-06 06:19:00,31.9,19.6,30.15,ENE,78,4.0,10.0,60,0.00,,---,0.00,VWS V14.00,2013-04-06 10:19:00,
2013-04-06 06:21:00,31.9,19.6,30.15,ESE,109,4.0,10.0,60,0.00,,---,0.00,VWS V14.00,2013-04-06 10:21:00,
2013-04-06 06:24:00,31.9,19.6,30.15,East,96,2.0,10.0,60,0.00,,---,0.00,VWS V14.00,2013-04-06 10:24:00,
2013-04-06 06:25:00,31.9,19.6,30.15,East,93,4.0,10.0,60,0.00,,---,0.00,VWS V14.00,2013-04-06 10:25:00,
2013-04-06 06:26:00,31.9,19.6,30.15,ESE,113,6.0,10.0,60,0.00,,---,0.00,VWS V14.00,2013-04-06 10:26:00,
2013-04-06 06:27:00,31.9,19.6,30.15,ESE,103,4.0,10.0,60,0.00,,---,0.00,VWS V14.00,2013-04-06 10:27:00,
2013-04-06 06:29:00,31.9,19.6,30.15,ENE,75,6.0,10.0,60,0.00,,---,0.00,VWS V14.00,2013-04-06 10:29:00,
2013-04-06 06:30:00,31.9,19.6,30.15,East,79,0.0,10.0,60,0.00,,---,0.00,VWS V14.00,2013-04-06 10:30:00,
2013-04-06 06:32:00,31.9,19.6,30.15,SE,127,2.0,10.0,60,0.00,,---,0.00,VWS V14.00,2013-04-06 10:32:00,
2013-04-06 06:34:00,31.9,19.6,30.15,East,96,6.0,10.0,60,0.00,,---,0.00,VWS V14.00,2013-04-06 10:34:00,
2013-04-06 06:35:00,31.9,19.6,30.15,East,96,1.0,10.0,60,0.00,,---,0.00,VWS V14.00,2013-04-06 10:35:00,
2013-04-06 06:37:00,31.9,19.6,30.15,East,92,1.0,10.0,60,0.00,,---,0.00,VWS V14.00,2013-04-06 10:37:00,
2013-04-06 06:40:00,31.9,19.6,30.15,ESE,107,2.0,10.0,60,0.00,,---,0.00,VWS V14.00,2013-04-06 10:40:00,
2013-04-06 06:42:00,31.9,19.6,30.15,East,88,4.0,10.0,60,0.00,,---,0.00,VWS V14.00,2013-04-06 10:42:00,
2013-04-06 06:45:00,31.9,19.6,30.15,East,89,1.0,10.0,60,0.00,,---,0.00,VWS V14.00,2013-04-06 10:45:00,
2013-04-06 06:47:00,31.9,19.6,30.15,ESE,120,4.0,10.0,60,0.00,,---,0.00,VWS V14.00,2013-04-06 10:47:00,
2013-04-06 06:50:00,31.9,19.6,30.15,East,89,1.0,10.0,60,0.00,,---,0.00,VWS V14.00,2013-04-06 10:50:00,
2013-04-06 06:52:00,31.9,19.6,30.15,ENE,75,2.0,10.0,60,0.00,,---,0.00,VWS V14.00,2013-04-06 10:52:00,
2013-04-06 06:55:00,31.9,19.6,30.15,East,79,2.0,10.0,60,0.00,,---,0.00,VWS V14.00,2013-04-06 10:55:00,
2013-04-06 06:57:00,31.9,19.6,30.15,East,79,0.0,10.0,60,0.00,,---,0.00,VWS V14.00,2013-04-06 10:57:00,
2013-04-06 06:58:00,31.9,19.6,30.15,East,79,0.0,10.0,60,0.00,,---,0.00,VWS V14.00,2013-04-06 10:58:00,
2013-04-06 07:00:00,31.9,19.6,30.16,East,82,0.0,10.0,60,0.00,,---,0.00,VWS V14.00,2013-04-06 11:00:00,
2013-04-06 07:02:00,31.9,19.6,30.16,ESE,112,1.0,6.0,60,0.00,,---,0.00,VWS V14.00,2013-04-06 11:02:00,
2013-04-06 07:03:00,31.9,19.6,30.16,ESE,116,1.0,6.0,60,0.00,,---,0.00,VWS V14.00,2013-04-06 11:03:00,
2013-04-06 07:06:00,31.9,19.6,30.16,ESE,120,6.0,8.0,60,0.00,,---,0.00,VWS V14.00,2013-04-06 11:06:00,
2013-04-06 07:07:00,31.9,19.6,30.16,SE,126,4.0,8.0,60,0.00,,---,0.00,VWS V14.00,2013-04-06 11:07:00,
2013-04-06 07:08:00,31.9,19.6,30.16,East,92,4.0,8.0,60,0.00,,---,0.00,VWS V14.00,2013-04-06 11:08:00,
2013-04-06 07:12:00,31.9,19.6,30.16,East,79,2.0,8.0,60,0.00,,---,0.00,VWS V14.00,2013-04-06 11:12:00,
2013-04-06 07:13:00,31.9,19.6,30.16,ESE,110,0.0,8.0,60,0.00,,---,0.00,VWS V14.00,2013-04-06 11:13:00,
2013-04-06 07:17:00,31.9,19.6,30.16,ESE,113,2.0,8.0,60,0.00,,---,0.00,VWS V14.00,2013-04-06 11:17:00,
2013-04-06 07:18:00,31.9,19.6,30.16,ESE,123,6.0,8.0,60,0.00,,---,0.00,VWS V14.00,2013-04-06 11:18:00,
2013-04-06 07:22:00,31.9,19.6,30.16,ESE,106,2.0,8.0,60,0.00,,---,0.00,VWS V14.00,2013-04-06 11:22:00,
2013-04-06 07:23:00,31.9,19.6,30.16,ESE,113,4.0,8.0,60,0.00,,---,0.00,VWS V14.00,2013-04-06 11:23:00,
2013-04-06 07:27:00,31.9,19.6,30.16,East,95,8.0,10.0,60,0.00,,---,0.00,VWS V14.00,2013-04-06 11:27:00,
2013-04-06 07:28:00,31.9,19.6,30.16,East,89,7.0,10.0,60,0.00,,---,0.00,VWS V14.00,2013-04-06 11:28:00,
2013-04-06 07:29:00,31.9,19.6,30.16,East,95,7.0,10.0,60,0.00,,---,0.00,VWS V14.00,2013-04-06 11:29:00,
2013-04-06 07:33:00,32.1,19.8,30.16,SE,127,7.0,10.0,60,0.00,,---,0.00,VWS V14.00,2013-04-06 11:33:00,
2013-04-06 07:34:00,32.1,19.8,30.16,East,93,6.0,10.0,60,0.00,,---,0.00,VWS V14.00,2013-04-06 11:34:00,
2013-04-06 07:38:00,32.1,19.8,30.16,East,100,0.0,10.0,60,0.00,,---,0.00,VWS V14.00,2013-04-06 11:38:00,
2013-04-06 07:39:00,32.1,19.8,30.16,ESE,113,6.0,11.0,60,0.00,,---,0.00,VWS V14.00,2013-04-06 11:39:00,
2013-04-06 07:43:00,32.1,20.2,30.16,ESE,120,6.0,11.0,61,0.00,,---,0.00,VWS V14.00,2013-04-06 11:43:00,
2013-04-06 07:44:00,32.1,20.2,30.16,East,89,1.0,11.0,61,0.00,,---,0.00,VWS V14.00,2013-04-06 11:44:00,
2013-04-06 07:48:00,32.1,20.2,30.16,ESE,117,7.0,11.0,61,0.00,,---,0.00,VWS V14.00,2013-04-06 11:48:00,
2013-04-06 07:49:00,32.2,20.3,30.16,East,89,7.0,11.0,61,0.00,,---,0.00,VWS V14.00,2013-04-06 11:49:00,
2013-04-06 07:53:00,32.2,20.3,30.16,East,95,8.0,11.0,61,0.00,,---,0.00,VWS V14.00,2013-04-06 11:53:00,
2013-04-06 07:54:00,32.2,20.3,30.16,ENE,75,4.0,11.0,61,0.00,,---,0.00,VWS V14.00,2013-04-06 11:54:00,
2013-04-06 07:58:00,32.2,20.7,30.16,East,85,0.0,11.0,62,0.00,,---,0.00,VWS V14.00,2013-04-06 11:58:00,
2013-04-06 07:59:00,32.2,20.7,30.16,East,86,1.0,11.0,62,0.00,,---,0.00,VWS V14.00,2013-04-06 11:59:00,
2013-04-06 08:00:00,32.2,20.7,30.16,SE,124,4.0,11.0,62,0.00,,---,0.00,VWS V14.00,2013-04-06 12:00:00,
2013-04-06 08:03:00,32.4,20.9,30.16,SE,126,2.0,8.0,62,0.00,,---,0.00,VWS V14.00,2013-04-06 12:03:00,
2013-04-06 08:04:00,32.4,20.9,30.16,ESE,116,2.0,8.0,62,0.00,,---,0.00,VWS V14.00,2013-04-06 12:04:00,
2013-04-06 08:05:00,32.4,20.9,30.16,East,95,2.0,8.0,62,0.00,,---,0.00,VWS V14.00,2013-04-06 12:05:00,
2013-04-06 08:09:00,32.4,20.9,30.16,ENE,69,6.0,8.0,62,0.00,,---,0.00,VWS V14.00,2013-04-06 12:09:00,
2013-04-06 08:10:00,32.5,20.9,30.16,SE,140,4.0,8.0,62,0.00,,---,0.00,VWS V14.00,2013-04-06 12:10:00,
2013-04-06 08:14:00,32.5,21.3,30.16,East,88,6.0,8.0,63,0.00,,---,0.00,VWS V14.00,2013-04-06 12:14:00,
2013-04-06 08:15:00,32.7,21.5,30.16,ESE,109,6.0,8.0,63,0.00,,---,0.00,VWS V14.00,2013-04-06 12:15:00,
2013-04-06 08:16:00,32.7,21.5,30.16,ESE,103,2.0,8.0,63,0.00,,---,0.00,VWS V14.00,2013-04-06 12:16:00,
2013-04-06 08:19:00,32.7,21.5,30.16,East,86,1.0,9.0,63,0.00,,---,0.00,VWS V14.00,2013-04-06 12:19:00,
2013-04-06 08:21:00,32.7,21.5,30.16,East,89,2.0,9.0,63,0.00,,---,0.00,VWS V14.00,2013-04-06 12:21:00,
2013-04-06 08:24:00,32.8,21.6,30.16,East,88,4.0,11.0,63,0.00,,---,0.00,VWS V14.00,2013-04-06 12:24:00,
2013-04-06 08:26:00,32.9,22.1,30.16,ESE,103,1.0,11.0,64,0.00,,---,0.00,VWS V14.00,2013-04-06 12:26:00,
2013-04-06 08:29:00,33.1,22.3,30.16,ESE,120,7.0,11.0,64,0.00,,---,0.00,VWS V14.00,2013-04-06 12:29:00,
2013-04-06 08:31:00,33.1,22.3,30.17,SE,141,13.0,13.0,64,0.00,,---,0.00,VWS V14.00,2013-04-06 12:31:00,
2013-04-06 08:32:00,33.1,22.3,30.17,ESE,120,6.0,13.0,64,0.00,,---,0.00,VWS V14.00,2013-04-06 12:32:00,
2013-04-06 08:34:00,33.2,22.4,30.17,ESE,113,6.0,13.0,64,0.00,,---,0.00,VWS V14.00,2013-04-06 12:34:00,
2013-04-06 08:36:00,33.2,22.4,30.17,ESE,119,0.0,13.0,64,0.00,,---,0.00,VWS V14.00,2013-04-06 12:36:00,
2013-04-06 08:37:00,33.2,22.4,30.17,ESE,119,0.0,13.0,64,0.00,,---,0.00,VWS V14.00,2013-04-06 12:37:00,
2013-04-06 08:40:00,33.2,22.4,30.17,SE,137,4.0,13.0,64,0.00,,---,0.00,VWS V14.00,2013-04-06 12:40:00,
2013-04-06 08:42:00,33.4,22.5,30.17,ESE,120,1.0,13.0,64,0.00,,---,0.00,VWS V14.00,2013-04-06 12:42:00,
2013-04-06 08:45:00,33.4,22.5,30.17,SE,127,6.0,13.0,64,0.00,,---,0.00,VWS V14.00,2013-04-06 12:45:00,
2013-04-06 08:47:00,33.5,22.6,30.17,SE,126,4.0,13.0,64,0.00,,---,0.00,VWS V14.00,2013-04-06 12:47:00,
2013-04-06 08:50:00,33.5,22.6,30.17,SSE,158,6.0,13.0,64,0.00,,---,0.00,VWS V14.00,2013-04-06 12:50:00,
2013-04-06 08:52:00,33.5,22.6,30.17,SE,127,2.0,13.0,64,0.00,,---,0.00,VWS V14.00,2013-04-06 12:52:00,
2013-04-06 08:53:00,33.5,22.6,30.17,SSE,150,4.0,13.0,64,0.00,,---,0.00,VWS V14.00,2013-04-06 12:53:00,
2013-04-06 08:55:00,33.7,22.8,30.17,ESE,120,4.0,13.0,64,0.00,,---,0.00,VWS V14.00,2013-04-06 12:55:00,
2013-04-06 08:57:00,33.7,22.8,30.17,ESE,107,6.0,13.0,64,0.00,,---,0.00,VWS V14.00,2013-04-06 12:57:00,
2013-04-06 08:58:00,33.7,22.8,30.17,ESE,117,2.0,13.0,64,0.00,,---,0.00,VWS V14.00,2013-04-06 12:58:00,
2013-04-06 09:00:00,33.8,22.9,30.17,SE,145,8.0,13.0,64,0.00,,---,0.00,VWS V14.00,2013-04-06 13:00:00,
2013-04-06 09:02:00,33.8,22.9,30.17,SE,127,4.0,8.0,64,0.00,,---,0.00,VWS V14.00,2013-04-06 13:02:00,
2013-04-06 09:03:00,33.8,22.9,30.17,SE,136,4.0,8.0,64,0.00,,---,0.00,VWS V14.00,2013-04-06 13:03:00,
2013-04-06 09:05:00,33.8,22.5,30.17,ESE,109,6.0,9.0,63,0.00,,---,0.00,VWS V14.00,2013-04-06 13:05:00,
2013-04-06 09:07:00,34.0,22.7,30.17,SE,145,2.0,9.0,63,0.00,,---,0.00,VWS V14.00,2013-04-06 13:07:00,
2013-04-06 09:08:00,34.0,22.7,30.17,SE,145,0.0,9.0,63,0.00,,---,0.00,VWS V14.00,2013-04-06 13:08:00,
2013-04-06 09:10:00,34.0,22.7,30.17,SE,141,2.0,10.0,63,0.00,,---,0.00,VWS V14.00,2013-04-06 13:10:00,
2013-04-06 09:12:00,34.1,22.8,30.17,ESE,120,1.0,10.0,63,0.00,,---,0.00,VWS V14.00,2013-04-06 13:12:00,
2013-04-06 09:13:00,34.1,22.8,30.17,ESE,120,0.0,10.0,63,0.00,,---,0.00,VWS V14.00,2013-04-06 13:13:00,
2013-04-06 09:16:00,34.1,22.8,30.18,SE,145,7.0,14.0,63,0.00,,---,0.00,VWS V14.00,2013-04-06 13:16:00,
2013-04-06 09:18:00,34.3,22.6,30.18,SE,138,9.0,14.0,62,0.00,,---,0.00,VWS V14.00,2013-04-06 13:18:00,
2013-04-06 09:21:00,34.3,22.6,30.18,SE,144,9.0,14.0,62,0.00,,---,0.00,VWS V14.00,2013-04-06 13:21:00,
2013-04-06 09:23:00,34.4,22.7,30.18,SE,144,2.0,14.0,62,0.00,,---,0.00,VWS V14.00,2013-04-06 13:23:00,
2013-04-06 09:27:00,34.6,22.9,30.18,SE,138,8.0,14.0,62,0.00,,---,0.00,VWS V14.00,2013-04-06 13:27:00,
2013-04-06 09:28:00,34.6,22.9,30.18,SE,134,11.0,14.0,62,0.00,,---,0.00,VWS V14.00,2013-04-06 13:28:00,
2013-04-06 09:29:00,34.6,22.9,30.18,SE,136,14.0,14.0,62,0.00,,---,0.00,VWS V14.00,2013-04-06 13:29:00,
2013-04-06 09:32:00,34.9,23.2,30.16,SE,124,10.0,16.0,62,0.00,,---,0.00,VWS V14.00,2013-04-06 13:32:00,
2013-04-06 09:33:00,34.9,23.2,30.16,SSE,147,9.0,16.0,62,0.00,,---,0.00,VWS V14.00,2013-04-06 13:33:00,
2013-04-06 09:34:00,34.9,23.2,30.16,SE,141,10.0,16.0,62,0.00,,---,0.00,VWS V14.00,2013-04-06 13:34:00,
2013-04-06 09:37:00,35.0,22.9,30.16,SE,130,6.0,16.0,61,0.00,,---,0.00,VWS V14.00,2013-04-06 13:37:00,
2013-04-06 09:38:00,35.0,22.9,30.16,SE,145,1.0,16.0,61,0.00,,---,0.00,VWS V14.00,2013-04-06 13:38:00,
2013-04-06 09:39:00,35.0,22.9,30.16,SE,138,11.0,16.0,61,0.00,,---,0.00,VWS V14.00,2013-04-06 13:39:00,
2013-04-06 09:42:00,35.2,23.1,30.16,SE,145,11.0,16.0,61,0.00,,---,0.00,VWS V14.00,2013-04-06 13:42:00,
2013-04-06 09:43:00,35.2,23.1,30.16,SE,144,9.0,16.0,61,0.00,,---,0.00,VWS V14.00,2013-04-06 13:43:00,
2013-04-06 09:45:00,35.3,23.2,30.16,SSE,150,4.0,16.0,61,0.00,,---,0.00,VWS V14.00,2013-04-06 13:45:00,
2013-04-06 09:47:00,35.5,23.4,30.16,East,86,6.0,16.0,61,0.00,,---,0.00,VWS V14.00,2013-04-06 13:47:00,
2013-04-06 09:48:00,35.5,23.4,30.16,SSE,151,7.0,16.0,61,0.00,,---,0.00,VWS V14.00,2013-04-06 13:48:00,
2013-04-06 09:50:00,35.5,23.4,30.16,SE,137,14.0,16.0,61,0.00,,---,0.00,VWS V14.00,2013-04-06 13:50:00,
2013-04-06 09:52:00,35.6,23.5,30.16,SE,138,6.0,16.0,61,0.00,,---,0.00,VWS V14.00,2013-04-06 13:52:00,
2013-04-06 09:53:00,35.8,23.7,30.16,SE,141,4.0,16.0,61,0.00,,---,0.00,VWS V14.00,2013-04-06 13:53:00,
2013-04-06 09:54:00,35.8,23.3,30.16,ESE,119,7.0,16.0,60,0.00,,---,0.00,VWS V14.00,2013-04-06 13:54:00,
2013-04-06 09:55:00,35.8,23.3,30.16,SE,137,9.0,16.0,60,0.00,,---,0.00,VWS V14.00,2013-04-06 13:55:00,
2013-04-06 09:58:00,36.0,23.5,30.16,SE,134,4.0,16.0,60,0.00,,---,0.00,VWS V14.00,2013-04-06 13:58:00,
2013-04-06 09:59:00,36.2,23.7,30.16,SE,144,6.0,16.0,60,0.00,,---,0.00,VWS V14.00,2013-04-06 13:59:00,
2013-04-06 10:00:00,36.3,24.1,30.15,SE,134,7.0,16.0,61,0.00,,---,0.00,VWS V14.00,2013-04-06 14:00:00,
2013-04-06 10:03:00,36.5,23.5,30.15,ESE,113,7.0,11.0,59,0.00,,---,0.00,VWS V14.00,2013-04-06 14:03:00,
2013-04-06 10:04:00,36.6,23.6,30.15,SE,130,7.0,14.0,59,0.00,,---,0.00,VWS V14.00,2013-04-06 14:04:00,
2013-04-06 10:05:00,36.6,23.6,30.15,SE,130,7.0,14.0,59,0.00,,---,0.00,VWS V14.00,2013-04-06 14:05:00,
2013-04-06 10:08:00,36.9,23.9,30.15,ESE,123,9.0,14.0,59,0.00,,---,0.00,VWS V14.00,2013-04-06 14:08:00,
2013-04-06 10:09:00,37.0,23.6,30.15,SE,127,7.0,16.0,58,0.00,,---,0.00,VWS V14.00,2013-04-06 14:09:00,
2013-04-06 10:10:00,37.0,23.6,30.15,ESE,117,9.0,16.0,58,0.00,,---,0.00,VWS V14.00,2013-04-06 14:10:00,
2013-04-06 10:13:00,37.2,23.8,30.15,East,79,11.0,17.0,58,0.00,,---,0.00,VWS V14.00,2013-04-06 14:13:00,
2013-04-06 10:14:00,37.3,23.9,30.15,SSE,151,7.0,17.0,58,0.00,,---,0.00,VWS V14.00,2013-04-06 14:14:00,
2013-04-06 10:15:00,37.3,23.9,30.15,SE,137,9.0,17.0,58,0.00,,---,0.00,VWS V14.00,2013-04-06 14:15:00,
2013-04-06 10:18:00,37.3,23.9,30.15,SE,144,9.0,17.0,58,0.00,,---,0.00,VWS V14.00,2013-04-06 14:18:00,
2013-04-06 10:19:00,37.3,23.9,30.15,East,100,6.0,18.0,58,0.00,,---,0.00,VWS V14.00,2013-04-06 14:19:00,
2013-04-06 10:20:00,37.5,24.5,30.15,SSE,150,4.0,18.0,59,0.00,,---,0.00,VWS V14.00,2013-04-06 14:20:00,
2013-04-06 10:21:00,37.5,24.5,30.15,SE,136,7.0,18.0,59,0.00,,---,0.00,VWS V14.00,2013-04-06 14:21:00,
2013-04-06 10:23:00,37.5,24.5,30.15,South,175,8.0,18.0,59,0.00,,---,0.00,VWS V14.00,2013-04-06 14:23:00,
2013-04-06 10:25:00,37.5,24.1,30.15,SE,137,11.0,18.0,58,0.00,,---,0.00,VWS V14.00,2013-04-06 14:25:00,
2013-04-06 10:26:00,37.5,24.1,30.15,SE,126,11.0,18.0,58,0.00,,---,0.00,VWS V14.00,2013-04-06 14:26:00,
2013-04-06 10:28:00,37.5,24.1,30.15,SE,136,10.0,20.0,58,0.00,,---,0.00,VWS V14.00,2013-04-06 14:28:00,
2013-04-06 10:30:00,37.5,24.1,30.15,ESE,116,4.0,20.0,58,0.00,,---,0.00,VWS V14.00,2013-04-06 14:30:00,
2013-04-06 10:32:00,37.5,24.1,30.14,SE,144,11.0,20.0,58,0.00,,---,0.00,VWS V14.00,2013-04-06 14:32:00,
2013-04-06 10:33:00,37.5,24.1,30.14,SE,127,8.0,20.0,58,0.00,,---,0.00,VWS V14.00,2013-04-06 14:33:00,
2013-04-06 10:35:00,37.5,23.7,30.14,ESE,103,9.0,20.0,57,0.00,,---,0.00,VWS V14.00,2013-04-06 14:35:00,
2013-04-06 10:37:00,37.6,23.8,30.14,SE,141,13.0,20.0,57,0.00,,---,0.00,VWS V14.00,2013-04-06 14:37:00,
2013-04-06 10:38:00,37.8,24.0,30.14,SE,137,8.0,20.0,57,0.00,,---,0.00,VWS V14.00,2013-04-06 14:38:00,
2013-04-06 10:40:00,37.9,24.0,30.14,SSE,151,10.0,20.0,57,0.00,,---,0.00,VWS V14.00,2013-04-06 14:40:00,
2013-04-06 10:42:00,38.0,23.3,30.14,SE,143,14.0,20.0,55,0.00,,---,0.00,VWS V14.00,2013-04-06 14:42:00,
2013-04-06 10:44:00,38.0,23.3,30.14,SE,130,11.0,20.0,55,0.00,,---,0.00,VWS V14.00,2013-04-06 14:44:00,
2013-04-06 10:45:00,38.2,23.5,30.14,SSE,155,9.0,20.0,55,0.00,,---,0.00,VWS V14.00,2013-04-06 14:45:00,
2013-04-06 10:47:00,38.2,23.5,30.13,SE,137,13.0,20.0,55,0.00,,---,0.00,VWS V14.00,2013-04-06 14:47:00,
2013-04-06 10:48:00,38.3,23.6,30.13,SSE,161,15.0,20.0,55,0.00,,---,0.00,VWS V14.00,2013-04-06 14:48:00,
2013-04-06 10:49:00,38.3,23.6,30.13,SSE,147,1.0,20.0,55,0.00,,---,0.00,VWS V14.00,2013-04-06 14:49:00,
2013-04-06 10:50:00,38.5,23.3,30.13,ESE,102,6.0,20.0,54,0.00,,---,0.00,VWS V14.00,2013-04-06 14:50:00,
2013-04-06 10:52:00,38.5,22.9,30.13,East,88,6.0,20.0,53,0.00,,---,0.00,VWS V14.00,2013-04-06 14:52:00,
2013-04-06 10:53:00,38.6,23.0,30.13,SSE,155,7.0,20.0,53,0.00,,---,0.00,VWS V14.00,2013-04-06 14:53:00,
2013-04-06 10:54:00,38.8,23.1,30.13,ESE,120,1.0,20.0,53,0.00,,---,0.00,VWS V14.00,2013-04-06 14:54:00,
2013-04-06 10:56:00,38.8,23.1,30.13,ESE,116,6.0,20.0,53,0.00,,---,0.00,VWS V14.00,2013-04-06 14:56:00,
2013-04-06 10:57:00,38.9,23.2,30.13,SE,145,6.0,20.0,53,0.00,,---,0.00,VWS V14.00,2013-04-06 14:57:00,
2013-04-06 10:58:00,39.1,23.0,30.13,ESE,119,4.0,20.0,52,0.00,,---,0.00,VWS V14.00,2013-04-06 14:58:00,
2013-04-06 11:00:00,39.1,23.0,30.13,SE,144,10.0,20.0,52,0.00,,---,0.00,VWS V14.00,2013-04-06 15:00:00,
2013-04-06 11:01:00,39.1,22.0,30.13,ESE,116,14.0,20.0,50,0.00,,---,0.00,VWS V14.00,2013-04-06 15:01:00,
2013-04-06 11:02:00,39.2,22.1,30.13,ESE,117,14.0,18.0,50,0.00,,---,0.00,VWS V14.00,2013-04-06 15:02:00,
2013-04-06 11:03:00,39.2,21.7,30.13,ESE,107,10.0,18.0,49,0.00,,---,0.00,VWS V14.00,2013-04-06 15:03:00,
2013-04-06 11:05:00,39.3,21.8,30.13,SE,127,4.0,18.0,49,0.00,,---,0.00,VWS V14.00,2013-04-06 15:05:00,
2013-04-06 11:06:00,39.3,21.8,30.13,ESE,117,6.0,18.0,49,0.00,,---,0.00,VWS V14.00,2013-04-06 15:06:00,
2013-04-06 11:08:00,39.5,21.9,30.13,SSE,150,2.0,18.0,49,0.00,,---,0.00,VWS V14.00,2013-04-06 15:08:00,
2013-04-06 11:09:00,39.6,22.0,30.13,ESE,116,9.0,18.0,49,0.00,,---,0.00,VWS V14.00,2013-04-06 15:09:00,
2013-04-06 11:10:00,39.6,21.5,30.13,SE,136,11.0,18.0,48,0.00,,---,0.00,VWS V14.00,2013-04-06 15:10:00,
2013-04-06 11:12:00,39.6,21.0,30.13,SE,143,8.0,18.0,47,0.00,,---,0.00,VWS V14.00,2013-04-06 15:12:00,
2013-04-06 11:13:00,39.6,20.5,30.13,ENE,65,8.0,18.0,46,0.00,,---,0.00,VWS V14.00,2013-04-06 15:13:00,
2013-04-06 11:14:00,39.8,21.2,30.13,SE,145,9.0,18.0,47,0.00,,---,0.00,VWS V14.00,2013-04-06 15:14:00,
2013-04-06 11:15:00,39.8,21.2,30.13,ESE,116,13.0,18.0,47,0.00,,---,0.00,VWS V14.00,2013-04-06 15:15:00,
2013-04-06 11:17:00,39.9,20.8,30.13,SE,143,13.0,18.0,46,0.00,,---,0.00,VWS V14.00,2013-04-06 15:17:00,
2013-04-06 11:18:00,39.9,20.8,30.13,ESE,109,7.0,18.0,46,0.00,,---,0.00,VWS V14.00,2013-04-06 15:18:00,
2013-04-06 11:19:00,40.1,21.0,30.13,SE,140,8.0,18.0,46,0.00,,---,0.00,VWS V14.00,2013-04-06 15:19:00,
2013-04-06 11:20:00,40.1,21.0,30.13,SE,137,9.0,18.0,46,0.00,,---,0.00,VWS V14.00,2013-04-06 15:20:00,
2013-04-06 11:22:00,40.1,20.5,30.13,SE,138,9.0,18.0,45,0.00,,---,0.00,VWS V14.00,2013-04-06 15:22:00,
2013-04-06 11:23:00,40.2,20.6,30.13,SSE,150,9.0,18.0,45,0.00,,---,0.00,VWS V14.00,2013-04-06 15:23:00,
2013-04-06 11:25:00,40.2,20.6,30.13,SE,130,9.0,18.0,45,0.00,,---,0.00,VWS V14.00,2013-04-06 15:25:00,
2013-04-06 11:26:00,40.3,20.7,30.13,SE,145,11.0,18.0,45,0.00,,---,0.00,VWS V14.00,2013-04-06 15:26:00,
2013-04-06 11:27:00,40.3,20.1,30.13,SE,131,8.0,18.0,44,0.00,,---,0.00,VWS V14.00,2013-04-06 15:27:00,
2013-04-06 11:28:00,40.3,20.1,30.13,East,96,6.0,18.0,44,0.00,,---,0.00,VWS V14.00,2013-04-06 15:28:00,
2013-04-06 11:30:00,40.3,20.1,30.13,SE,127,8.0,18.0,44,0.00,,---,0.00,VWS V14.00,2013-04-06 15:30:00,
2013-04-06 11:31:00,40.5,20.3,30.13,SE,127,17.0,20.0,44,0.00,,---,0.00,VWS V14.00,2013-04-06 15:31:00,
2013-04-06 11:32:00,40.5,19.8,30.13,SE,141,4.0,20.0,43,0.00,,---,0.00,VWS V14.00,2013-04-06 15:32:00,
2013-04-06 11:33:00,40.5,19.8,30.13,SE,137,14.0,20.0,43,0.00,,---,0.00,VWS V14.00,2013-04-06 15:33:00,
2013-04-06 11:35:00,40.5,19.8,30.13,SE,136,10.0,20.0,43,0.00,,---,0.00,VWS V14.00,2013-04-06 15:35:00,
2013-04-06 11:36:00,40.6,20.4,30.13,SE,127,8.0,20.0,44,0.00,,---,0.00,VWS V14.00,2013-04-06 15:36:00,
2013-04-06 11:37:00,40.6,19.9,30.13,SE,141,11.0,20.0,43,0.00,,---,0.00,VWS V14.00,2013-04-06 15:37:00,
2013-04-06 11:38:00,40.6,19.9,30.13,ESE,119,2.0,20.0,43,0.00,,---,0.00,VWS V14.00,2013-04-06 15:38:00,
2013-04-06 11:40:00,40.6,19.9,30.13,ESE,117,8.0,20.0,43,0.00,,---,0.00,VWS V14.00,2013-04-06 15:40:00,
2013-04-06 11:41:00,40.8,20.0,30.13,SE,127,11.0,20.0,43,0.00,,---,0.00,VWS V14.00,2013-04-06 15:41:00,
2013-04-06 11:42:00,40.8,20.0,30.13,SSW,212,4.0,20.0,43,0.00,,---,0.00,VWS V14.00,2013-04-06 15:42:00,
2013-04-06 11:44:00,40.8,20.0,30.13,SSE,165,4.0,20.0,43,0.00,,---,0.00,VWS V14.00,2013-04-06 15:44:00,
2013-04-06 11:45:00,40.8,20.0,30.13,SE,143,9.0,20.0,43,0.00,,---,0.00,VWS V14.00,2013-04-06 15:45:00,
2013-04-06 11:47:00,40.9,19.6,30.13,SE,136,8.0,20.0,42,0.00,,---,0.00,VWS V14.00,2013-04-06 15:47:00,
2013-04-06 11:50:00,41.1,19.8,30.13,South,181,11.0,20.0,42,0.00,,---,0.00,VWS V14.00,2013-04-06 15:50:00,
2013-04-06 11:52:00,41.1,19.8,30.13,SSE,147,8.0,20.0,42,0.00,,---,0.00,VWS V14.00,2013-04-06 15:52:00,
2013-04-06 11:55:00,41.2,19.9,30.13,SE,137,13.0,20.0,42,0.00,,---,0.00,VWS V14.00,2013-04-06 15:55:00,
2013-04-06 11:56:00,41.2,19.9,30.13,SSE,160,14.0,20.0,42,0.00,,---,0.00,VWS V14.00,2013-04-06 15:56:00,
2013-04-06 11:57:00,41.2,19.3,30.13,SSE,151,9.0,20.0,41,0.00,,---,0.00,VWS V14.00,2013-04-06 15:57:00,
2013-04-06 11:58:00,41.3,19.4,30.13,SE,137,6.0,20.0,41,0.00,,---,0.00,VWS V14.00,2013-04-06 15:58:00,
2013-04-06 12:00:00,41.5,20.1,30.13,ESE,119,6.0,20.0,42,0.00,,---,0.00,VWS V14.00,2013-04-06 16:00:00,
2013-04-06 12:01:00,41.5,20.1,30.12,ESE,116,2.0,20.0,42,0.00,,---,0.00,VWS V14.00,2013-04-06 16:01:00,
2013-04-06 12:02:00,41.6,20.2,30.12,SE,124,2.0,10.0,42,0.00,,---,0.00,VWS V14.00,2013-04-06 16:02:00,
2013-04-06 12:03:00,41.8,20.4,30.12,SSE,155,9.0,11.0,42,0.00,,---,0.00,VWS V14.00,2013-04-06 16:03:00,
2013-04-06 12:05:00,41.9,20.5,30.12,SE,144,4.0,15.0,42,0.00,,---,0.00,VWS V14.00,2013-04-06 16:05:00,
2013-04-06 12:06:00,42.1,20.1,30.12,SE,133,0.0,15.0,41,0.00,,---,0.00,VWS V14.00,2013-04-06 16:06:00,
2013-04-06 12:08:00,42.2,20.8,30.12,SE,140,9.0,15.0,42,0.00,,---,0.00,VWS V14.00,2013-04-06 16:08:00,
2013-04-06 12:11:00,42.5,20.5,30.12,SSE,154,17.0,17.0,41,0.00,,---,0.00,VWS V14.00,2013-04-06 16:11:00,
2013-04-06 12:13:00,42.6,20.6,30.12,SE,141,14.0,17.0,41,0.00,,---,0.00,VWS V14.00,2013-04-06 16:13:00,
2013-04-06 12:16:00,42.6,20.6,30.11,SE,145,8.0,17.0,41,0.00,,---,0.00,VWS V14.00,2013-04-06 16:16:00,
2013-04-06 12:17:00,42.8,20.8,30.11,SE,130,15.0,17.0,41,0.00,,---,0.00,VWS V14.00,2013-04-06 16:17:00,
2013-04-06 12:18:00,42.8,20.2,30.11,SE,134,8.0,17.0,40,0.00,,---,0.00,VWS V14.00,2013-04-06 16:18:00,
2013-04-06 12:21:00,42.9,20.3,30.11,SE,127,14.0,18.0,40,0.00,,---,0.00,VWS V14.00,2013-04-06 16:21:00,
2013-04-06 12:22:00,42.9,20.3,30.11,SE,127,8.0,18.0,40,0.00,,---,0.00,VWS V14.00,2013-04-06 16:22:00,
2013-04-06 12:23:00,42.9,20.3,30.11,SE,137,6.0,18.0,40,0.00,,---,0.00,VWS V14.00,2013-04-06 16:23:00,
2013-04-06 12:24:00,43.1,20.4,30.11,ESE,110,11.0,18.0,40,0.00,,---,0.00,VWS V14.00,2013-04-06 16:24:00,
2013-04-06 12:26:00,43.1,20.4,30.11,SE,138,4.0,18.0,40,0.00,,---,0.00,VWS V14.00,2013-04-06 16:26:00,
2013-04-06 12:27:00,43.2,20.5,30.11,ESE,110,2.0,18.0,40,0.00,,---,0.00,VWS V14.00,2013-04-06 16:27:00,
2013-04-06 12:29:00,43.3,20.6,30.11,SE,136,8.0,18.0,40,0.00,,---,0.00,VWS V14.00,2013-04-06 16:29:00,
2013-04-06 12:32:00,43.5,20.2,30.10,SE,126,6.0,18.0,39,0.00,,---,0.00,VWS V14.00,2013-04-06 16:32:00,
2013-04-06 12:34:00,43.6,19.7,30.10,SSE,154,4.0,18.0,38,0.00,,---,0.00,VWS V14.00,2013-04-06 16:34:00,
2013-04-06 12:37:00,43.6,19.7,30.10,SSE,167,6.0,18.0,38,0.00,,---,0.00,VWS V14.00,2013-04-06 16:37:00,
2013-04-06 12:39:00,43.8,20.5,30.10,SSE,155,9.0,18.0,39,0.00,,---,0.00,VWS V14.00,2013-04-06 16:39:00,
2013-04-06 12:42:00,43.8,19.9,30.10,SE,131,8.0,18.0,38,0.00,,---,0.00,VWS V14.00,2013-04-06 16:42:00,
2013-04-06 12:43:00,43.8,19.9,30.10,SSE,164,15.0,18.0,38,0.00,,---,0.00,VWS V14.00,2013-04-06 16:43:00,
2013-04-06 12:45:00,43.8,19.9,30.10,SSE,147,2.0,18.0,38,0.00,,---,0.00,VWS V14.00,2013-04-06 16:45:00,
2013-04-06 12:47:00,43.9,20.6,30.09,SSE,147,4.0,18.0,39,0.00,,---,0.00,VWS V14.00,2013-04-06 16:47:00,
2013-04-06 12:48:00,44.1,20.7,30.09,East,100,11.0,18.0,39,0.00,,---,0.00,VWS V14.00,2013-04-06 16:48:00,
2013-04-06 12:50:00,44.1,20.1,30.09,SE,131,7.0,18.0,38,0.00,,---,0.00,VWS V14.00,2013-04-06 16:50:00,
2013-04-06 12:52:00,44.2,20.2,30.09,SE,140,14.0,18.0,38,0.00,,---,0.00,VWS V14.00,2013-04-06 16:52:00,
2013-04-06 12:53:00,44.2,20.2,30.09,SSE,150,7.0,18.0,38,0.00,,---,0.00,VWS V14.00,2013-04-06 16:53:00,
2013-04-06 12:55:00,44.2,19.6,30.09,SSE,151,2.0,18.0,37,0.00,,---,0.00,VWS V14.00,2013-04-06 16:55:00,
2013-04-06 12:57:00,44.2,20.2,30.09,South,171,4.0,18.0,38,0.00,,---,0.00,VWS V14.00,2013-04-06 16:57:00,
2013-04-06 12:58:00,44.2,20.2,30.09,SSE,154,8.0,18.0,38,0.00,,---,0.00,VWS V14.00,2013-04-06 16:58:00,
2013-04-06 13:00:00,44.3,20.3,30.09,ESE,116,8.0,18.0,38,0.00,,---,0.00,VWS V14.00,2013-04-06 17:00:00,
2013-04-06 13:02:00,44.5,20.5,30.08,SE,143,14.0,15.0,38,0.00,,---,0.00,VWS V14.00,2013-04-06 17:02:00,
2013-04-06 13:03:00,44.5,19.9,30.08,SSE,148,15.0,16.0,37,0.00,,---,0.00,VWS V14.00,2013-04-06 17:03:00,
2013-04-06 13:05:00,44.5,20.5,30.08,SE,145,6.0,16.0,38,0.00,,---,0.00,VWS V14.00,2013-04-06 17:05:00,
2013-04-06 13:08:00,44.5,19.9,30.08,SE,145,2.0,16.0,37,0.00,,---,0.00,VWS V14.00,2013-04-06 17:08:00,
2013-04-06 13:11:00,44.6,20.0,30.08,SSE,151,7.0,18.0,37,0.00,,---,0.00,VWS V14.00,2013-04-06 17:11:00,
2013-04-06 13:13:00,44.8,20.1,30.08,SSE,151,10.0,18.0,37,0.00,,---,0.00,VWS V14.00,2013-04-06 17:13:00,
2013-04-06 13:16:00,44.9,20.9,30.08,SE,130,13.0,18.0,38,0.00,,---,0.00,VWS V14.00,2013-04-06 17:16:00,
2013-04-06 13:18:00,45.2,21.1,30.08,SE,143,18.0,18.0,38,0.00,,---,0.00,VWS V14.00,2013-04-06 17:18:00,
2013-04-06 13:21:00,45.4,20.7,30.08,SE,136,7.0,18.0,37,0.00,,---,0.00,VWS V14.00,2013-04-06 17:21:00,
2013-04-06 13:23:00,45.5,20.8,30.08,SE,130,9.0,18.0,37,0.00,,---,0.00,VWS V14.00,2013-04-06 17:23:00,
2013-04-06 13:26:00,45.7,20.3,30.08,SSE,154,10.0,18.0,36,0.00,,---,0.00,VWS V14.00,2013-04-06 17:26:00,
2013-04-06 13:28:00,45.7,20.3,30.08,SE,131,6.0,18.0,36,0.00,,---,0.00,VWS V14.00,2013-04-06 17:28:00,
2013-04-06 13:31:00,45.8,20.4,30.07,SSE,151,11.0,18.0,36,0.00,,---,0.00,VWS V14.00,2013-04-06 17:31:00,
2013-04-06 13:34:00,45.8,20.4,30.07,SSE,147,4.0,18.0,36,0.00,,---,0.00,VWS V14.00,2013-04-06 17:34:00,
2013-04-06 13:37:00,46.1,21.3,30.07,SSE,161,10.0,18.0,37,0.00,,---,0.00,VWS V14.00,2013-04-06 17:37:00,
2013-04-06 13:39:00,46.2,21.4,30.07,SSE,148,7.0,18.0,37,0.00,,---,0.00,VWS V14.00,2013-04-06 17:39:00,
2013-04-06 13:40:00,46.4,21.6,30.07,SSE,151,7.0,18.0,37,0.00,,---,0.00,VWS V14.00,2013-04-06 17:40:00,
2013-04-06 13:42:00,46.5,21.6,30.07,SE,141,10.0,18.0,37,0.00,,---,0.00,VWS V14.00,2013-04-06 17:42:00,
2013-04-06 13:45:00,46.7,20.5,30.07,SE,136,10.0,18.0,35,0.00,,---,0.00,VWS V14.00,2013-04-06 17:45:00,
2013-04-06 13:47:00,46.8,22.5,30.05,SE,131,6.0,18.0,38,0.00,,---,0.00,VWS V14.00,2013-04-06 17:47:00,
2013-04-06 13:50:00,47.1,21.5,30.05,SSE,147,11.0,18.0,36,0.00,,---,0.00,VWS V14.00,2013-04-06 17:50:00,
2013-04-06 13:52:00,47.3,21.7,30.05,SSE,162,9.0,18.0,36,0.00,,---,0.00,VWS V14.00,2013-04-06 17:52:00,
2013-04-06 13:55:00,47.4,21.8,30.05,SSE,147,7.0,18.0,36,0.00,,---,0.00,VWS V14.00,2013-04-06 17:55:00,
2013-04-06 13:57:00,47.7,22.1,30.05,SE,130,4.0,18.0,36,0.00,,---,0.00,VWS V14.00,2013-04-06 17:57:00,
2013-04-06 14:00:00,47.9,21.6,30.05,SSE,157,13.0,18.0,35,0.00,,---,0.00,VWS V14.00,2013-04-06 18:00:00,
2013-04-06 14:02:00,47.9,21.6,30.04,SE,144,8.0,13.0,35,0.00,,---,0.00,VWS V14.00,2013-04-06 18:02:00,
2013-04-06 14:03:00,47.7,21.4,30.04,SE,137,8.0,13.0,35,0.00,,---,0.00,VWS V14.00,2013-04-06 18:03:00,
2013-04-06 14:05:00,47.9,22.2,30.04,ESE,123,6.0,14.0,36,0.00,,---,0.00,VWS V14.00,2013-04-06 18:05:00,
2013-04-06 14:07:00,48.0,22.3,30.04,SSE,148,9.0,16.0,36,0.00,,---,0.00,VWS V14.00,2013-04-06 18:07:00,
2013-04-06 14:08:00,48.0,22.3,30.04,SSE,155,8.0,16.0,36,0.00,,---,0.00,VWS V14.00,2013-04-06 18:08:00,
2013-04-06 14:10:00,48.0,21.7,30.04,SE,127,2.0,16.0,35,0.00,,---,0.00,VWS V14.00,2013-04-06 18:10:00,
2013-04-06 14:12:00,47.9,21.6,30.04,SE,126,6.0,16.0,35,0.00,,---,0.00,VWS V14.00,2013-04-06 18:12:00,
2013-04-06 14:13:00,48.0,22.3,30.04,SSE,151,4.0,16.0,36,0.00,,---,0.00,VWS V14.00,2013-04-06 18:13:00,
2013-04-06 14:15:00,48.0,22.3,30.03,SE,141,6.0,16.0,36,0.00,,---,0.00,VWS V14.00,2013-04-06 18:15:00,
2013-04-06 14:16:00,48.0,23.0,30.03,SW,215,6.0,16.0,37,0.00,,---,0.00,VWS V14.00,2013-04-06 18:16:00,
2013-04-06 14:18:00,48.2,22.5,30.03,SSE,157,7.0,16.0,36,0.00,,---,0.00,VWS V14.00,2013-04-06 18:18:00,
2013-04-06 14:19:00,48.0,21.7,30.03,SE,138,7.0,16.0,35,0.00,,---,0.00,VWS V14.00,2013-04-06 18:19:00,
2013-04-06 14:20:00,47.9,21.6,30.03,SE,131,7.0,16.0,35,0.00,,---,0.00,VWS V14.00,2013-04-06 18:20:00,
2013-04-06 14:22:00,48.0,22.3,30.03,SE,137,4.0,16.0,36,0.00,,---,0.00,VWS V14.00,2013-04-06 18:22:00,
2013-04-06 14:23:00,48.0,23.0,30.03,SE,140,7.0,16.0,37,0.00,,---,0.00,VWS V14.00,2013-04-06 18:23:00,
2013-04-06 14:24:00,48.0,23.0,30.03,ESE,112,11.0,17.0,37,0.00,,---,0.00,VWS V14.00,2013-04-06 18:24:00,
2013-04-06 14:26:00,48.0,23.0,30.03,East,95,6.0,17.0,37,0.00,,---,0.00,VWS V14.00,2013-04-06 18:26:00,
2013-04-06 14:27:00,48.0,22.3,30.03,SE,138,9.0,17.0,36,0.00,,---,0.00,VWS V14.00,2013-04-06 18:27:00,
2013-04-06 14:28:00,48.0,22.3,30.03,SE,137,8.0,17.0,36,0.00,,---,0.00,VWS V14.00,2013-04-06 18:28:00,
2013-04-06 14:29:00,47.9,22.2,30.03,SE,140,13.0,17.0,36,0.00,,---,0.00,VWS V14.00,2013-04-06 18:29:00,
2013-04-06 14:31:00,47.9,21.6,30.01,SE,141,8.0,17.0,35,0.00,,---,0.00,VWS V14.00,2013-04-06 18:31:00,
2013-04-06 14:32:00,47.9,22.9,30.01,ESE,123,6.0,17.0,37,0.00,,---,0.00,VWS V14.00,2013-04-06 18:32:00,
2013-04-06 14:33:00,48.0,23.0,30.01,SE,134,9.0,17.0,37,0.00,,---,0.00,VWS V14.00,2013-04-06 18:33:00,
2013-04-06 14:34:00,48.0,23.0,30.01,SE,141,8.0,17.0,37,0.00,,---,0.00,VWS V14.00,2013-04-06 18:34:00,
2013-04-06 14:36:00,48.0,23.6,30.01,SE,134,13.0,17.0,38,0.00,,---,0.00,VWS V14.00,2013-04-06 18:36:00,
2013-04-06 14:38:00,48.2,23.2,30.01,SE,136,10.0,17.0,37,0.00,,---,0.00,VWS V14.00,2013-04-06 18:38:00,
2013-04-06 14:39:00,48.2,23.8,30.01,ESE,109,7.0,17.0,38,0.00,,---,0.00,VWS V14.00,2013-04-06 18:39:00,
2013-04-06 14:40:00,48.2,23.8,30.01,SE,131,2.0,17.0,38,0.00,,---,0.00,VWS V14.00,2013-04-06 18:40:00,
2013-04-06 14:42:00,48.3,23.9,30.01,SE,133,4.0,17.0,38,0.00,,---,0.00,VWS V14.00,2013-04-06 18:42:00,
2013-04-06 14:43:00,48.5,24.7,30.01,SE,136,8.0,17.0,39,0.00,,---,0.00,VWS V14.00,2013-04-06 18:43:00,
2013-04-06 14:44:00,48.6,24.2,30.01,SE,133,10.0,17.0,38,0.00,,---,0.00,VWS V14.00,2013-04-06 18:44:00,
2013-04-06 14:45:00,48.8,23.7,30.01,ESE,119,7.0,17.0,37,0.00,,---,0.00,VWS V14.00,2013-04-06 18:45:00,
2013-04-06 14:47:00,48.9,23.8,30.00,SE,137,8.0,17.0,37,0.00,,---,0.00,VWS V14.00,2013-04-06 18:47:00,
2013-04-06 14:48:00,49.1,24.0,30.00,SE,143,8.0,17.0,37,0.00,,---,0.00,VWS V14.00,2013-04-06 18:48:00,
2013-04-06 14:49:00,49.2,24.7,30.00,SE,127,8.0,17.0,38,0.00,,---,0.00,VWS V14.00,2013-04-06 18:49:00,
2013-04-06 14:50:00,49.4,24.2,30.00,SE,145,11.0,17.0,37,0.00,,---,0.00,VWS V14.00,2013-04-06 18:50:00,
2013-04-06 14:52:00,49.5,25.0,30.00,ESE,109,9.0,17.0,38,0.00,,---,0.00,VWS V14.00,2013-04-06 18:52:00,
2013-04-06 14:53:00,49.6,23.8,30.00,SE,131,4.0,17.0,36,0.00,,---,0.00,VWS V14.00,2013-04-06 18:53:00,
2013-04-06 14:54:00,49.6,24.4,30.00,ESE,106,14.0,17.0,37,0.00,,---,0.00,VWS V14.00,2013-04-06 18:54:00,
2013-04-06 14:55:00,49.8,23.9,30.00,SE,130,6.0,17.0,36,0.00,,---,0.00,VWS V14.00,2013-04-06 18:55:00,
2013-04-06 14:57:00,49.9,24.7,30.00,ESE,113,16.0,17.0,37,0.00,,---,0.00,VWS V14.00,2013-04-06 18:57:00,
2013-04-06 14:58:00,50.1,24.9,30.00,SE,133,14.0,17.0,37,0.00,,---,0.00,VWS V14.00,2013-04-06 18:58:00,
2013-04-06 14:59:00,50.1,24.9,30.00,SE,138,10.0,17.0,37,0.00,,---,0.00,VWS V14.00,2013-04-06 18:59:00,
2013-04-06 15:00:00,50.1,23.5,30.00,SE,130,10.0,17.0,35,0.00,,---,0.00,VWS V14.00,2013-04-06 19:00:00,
2013-04-06 15:02:00,50.1,23.5,30.00,SSE,155,7.0,14.0,35,0.00,,---,0.00,VWS V14.00,2013-04-06 19:02:00,
2013-04-06 15:03:00,50.2,23.6,30.00,ESE,113,10.0,20.0,35,0.00,,---,0.00,VWS V14.00,2013-04-06 19:03:00,
2013-04-06 15:04:00,50.2,23.6,30.00,SE,133,4.0,20.0,35,0.00,,---,0.00,VWS V14.00,2013-04-06 19:04:00,
2013-04-06 15:05:00,50.2,24.3,30.00,SSE,148,4.0,20.0,36,0.00,,---,0.00,VWS V14.00,2013-04-06 19:05:00,
2013-04-06 15:07:00,50.4,23.8,30.00,SE,134,8.0,20.0,35,0.00,,---,0.00,VWS V14.00,2013-04-06 19:07:00,
2013-04-06 15:09:00,50.4,23.8,30.00,SE,133,7.0,20.0,35,0.00,,---,0.00,VWS V14.00,2013-04-06 19:09:00,
2013-04-06 15:10:00,50.4,23.8,30.00,SE,145,9.0,20.0,35,0.00,,---,0.00,VWS V14.00,2013-04-06 19:10:00,
2013-04-06 15:12:00,50.2,22.9,30.00,SSE,161,8.0,20.0,34,0.00,,---,0.00,VWS V14.00,2013-04-06 19:12:00,
2013-04-06 15:14:00,50.2,23.6,30.00,SE,127,13.0,20.0,35,0.00,,---,0.00,VWS V14.00,2013-04-06 19:14:00,
2013-04-06 15:15:00,50.2,23.6,30.00,SE,141,16.0,20.0,35,0.00,,---,0.00,VWS V14.00,2013-04-06 19:15:00,
2013-04-06 15:17:00,50.2,23.6,29.99,ESE,123,6.0,20.0,35,0.00,,---,0.00,VWS V14.00,2013-04-06 19:17:00,
2013-04-06 15:19:00,50.4,24.5,29.99,ESE,120,9.0,20.0,36,0.00,,---,0.00,VWS V14.00,2013-04-06 19:19:00,
2013-04-06 15:20:00,50.4,24.5,29.99,SE,138,4.0,20.0,36,0.00,,---,0.00,VWS V14.00,2013-04-06 19:20:00,
2013-04-06 15:22:00,50.8,24.8,29.99,SE,143,10.0,20.0,36,0.00,,---,0.00,VWS V14.00,2013-04-06 19:22:00,
2013-04-06 15:24:00,51.1,25.1,29.99,SE,127,8.0,20.0,36,0.00,,---,0.00,VWS V14.00,2013-04-06 19:24:00,
2013-04-06 15:25:00,51.1,24.4,29.99,SE,145,11.0,20.0,35,0.00,,---,0.00,VWS V14.00,2013-04-06 19:25:00,
2013-04-06 15:28:00,51.3,24.6,29.99,SSE,147,10.0,20.0,35,0.00,,---,0.00,VWS V14.00,2013-04-06 19:28:00,
2013-04-06 15:30:00,51.3,23.9,29.99,ESE,119,11.0,20.0,34,0.00,,---,0.00,VWS V14.00,2013-04-06 19:30:00,
2013-04-06 15:33:00,51.3,24.6,29.97,SE,127,1.0,20.0,35,0.00,,---,0.00,VWS V14.00,2013-04-06 19:33:00,
2013-04-06 15:35:00,51.4,24.0,29.97,SSE,147,6.0,20.0,34,0.00,,---,0.00,VWS V14.00,2013-04-06 19:35:00,
2013-04-06 15:38:00,51.6,24.9,29.97,SE,131,9.0,20.0,35,0.00,,---,0.00,VWS V14.00,2013-04-06 19:38:00,
2013-04-06 15:40:00,51.9,24.4,29.97,SE,134,11.0,20.0,34,0.00,,---,0.00,VWS V14.00,2013-04-06 19:40:00,
2013-04-06 15:41:00,51.9,24.4,29.97,SE,134,8.0,20.0,34,0.00,,---,0.00,VWS V14.00,2013-04-06 19:41:00,
2013-04-06 15:43:00,52.0,24.5,29.97,SE,130,9.0,20.0,34,0.00,,---,0.00,VWS V14.00,2013-04-06 19:43:00,
2013-04-06 15:45:00,52.2,24.7,29.97,SSE,148,2.0,20.0,34,0.00,,---,0.00,VWS V14.00,2013-04-06 19:45:00,
2013-04-06 15:46:00,52.3,24.1,29.95,SE,137,9.0,20.0,33,0.00,,---,0.00,VWS V14.00,2013-04-06 19:46:00,
2013-04-06 15:48:00,52.5,25.0,29.95,SE,127,6.0,20.0,34,0.00,,---,0.00,VWS V14.00,2013-04-06 19:48:00,
2013-04-06 15:50:00,52.5,24.2,29.95,South,169,10.0,20.0,33,0.00,,---,0.00,VWS V14.00,2013-04-06 19:50:00,
2013-04-06 15:52:00,52.5,23.5,29.95,ESE,120,10.0,20.0,32,0.00,,---,0.00,VWS V14.00,2013-04-06 19:52:00,
2013-04-06 15:53:00,52.5,23.5,29.95,SE,134,9.0,20.0,32,0.00,,---,0.00,VWS V14.00,2013-04-06 19:53:00,
2013-04-06 15:55:00,52.5,23.5,29.95,SSE,150,8.0,20.0,32,0.00,,---,0.00,VWS V14.00,2013-04-06 19:55:00,
2013-04-06 15:56:00,52.5,23.5,29.95,ESE,123,4.0,20.0,32,0.00,,---,0.00,VWS V14.00,2013-04-06 19:56:00,
2013-04-06 15:58:00,52.5,25.0,29.95,SE,137,2.0,20.0,34,0.00,,---,0.00,VWS V14.00,2013-04-06 19:58:00,
2013-04-06 16:01:00,52.8,23.8,29.94,SSE,151,14.0,20.0,32,0.00,,---,0.00,VWS V14.00,2013-04-06 20:01:00,
2013-04-06 16:03:00,52.8,24.5,29.94,SE,130,8.0,14.0,33,0.00,,---,0.00,VWS V14.00,2013-04-06 20:03:00,
2013-04-06 16:06:00,52.9,23.9,29.94,SE,134,7.0,14.0,32,0.00,,---,0.00,VWS V14.00,2013-04-06 20:06:00,
2013-04-06 16:08:00,53.1,24.0,29.94,SE,136,8.0,14.0,32,0.00,,---,0.00,VWS V14.00,2013-04-06 20:08:00,
2013-04-06 16:11:00,53.2,24.9,29.94,SE,133,6.0,17.0,33,0.00,,---,0.00,VWS V14.00,2013-04-06 20:11:00,
2013-04-06 16:12:00,53.2,25.6,29.94,SSE,147,2.0,17.0,34,0.00,,---,0.00,VWS V14.00,2013-04-06 20:12:00,
2013-04-06 16:13:00,53.3,25.7,29.94,ESE,119,9.0,17.0,34,0.00,,---,0.00,VWS V14.00,2013-04-06 20:13:00,
2013-04-06 16:16:00,53.2,24.1,29.93,SSE,151,7.0,17.0,32,0.00,,---,0.00,VWS V14.00,2013-04-06 20:16:00,
2013-04-06 16:17:00,53.3,25.0,29.93,SSE,150,10.0,17.0,33,0.00,,---,0.00,VWS V14.00,2013-04-06 20:17:00,
2013-04-06 16:18:00,53.3,25.7,29.93,SSE,151,2.0,17.0,34,0.00,,---,0.00,VWS V14.00,2013-04-06 20:18:00,
2013-04-06 16:19:00,53.5,25.8,29.93,SE,140,7.0,17.0,34,0.00,,---,0.00,VWS V14.00,2013-04-06 20:19:00,
2013-04-06 16:22:00,53.9,25.5,29.93,SE,127,7.0,17.0,33,0.00,,---,0.00,VWS V14.00,2013-04-06 20:22:00,
2013-04-06 16:23:00,54.2,25.0,29.93,South,172,4.0,17.0,32,0.00,,---,0.00,VWS V14.00,2013-04-06 20:23:00,
2013-04-06 16:24:00,54.2,25.0,29.93,SE,134,13.0,17.0,32,0.00,,---,0.00,VWS V14.00,2013-04-06 20:24:00,
2013-04-06 16:27:00,54.5,25.3,29.93,SE,141,7.0,17.0,32,0.00,,---,0.00,VWS V14.00,2013-04-06 20:27:00,
2013-04-06 16:28:00,54.5,25.3,29.93,ESE,123,8.0,17.0,32,0.00,,---,0.00,VWS V14.00,2013-04-06 20:28:00,
2013-04-06 16:30:00,54.5,25.3,29.93,ESE,123,14.0,17.0,32,0.00,,---,0.00,VWS V14.00,2013-04-06 20:30:00,
2013-04-06 16:32:00,54.7,24.7,29.91,SSE,154,4.0,17.0,31,0.00,,---,0.00,VWS V14.00,2013-04-06 20:32:00,
2013-04-06 16:33:00,54.7,24.7,29.91,SE,138,10.0,17.0,31,0.00,,---,0.00,VWS V14.00,2013-04-06 20:33:00,
2013-04-06 16:35:00,54.7,25.4,29.91,SE,133,2.0,17.0,32,0.00,,---,0.00,VWS V14.00,2013-04-06 20:35:00,
2013-04-06 16:37:00,54.8,26.3,29.91,SE,133,8.0,17.0,33,0.00,,---,0.00,VWS V14.00,2013-04-06 20:37:00,
2013-04-06 16:38:00,54.8,24.8,29.91,SE,130,9.0,17.0,31,0.00,,---,0.00,VWS V14.00,2013-04-06 20:38:00,
2013-04-06 16:40:00,54.7,25.4,29.91,SE,141,7.0,20.0,32,0.00,,---,0.00,VWS V14.00,2013-04-06 20:40:00,
2013-04-06 16:42:00,54.5,25.3,29.91,SE,124,10.0,20.0,32,0.00,,---,0.00,VWS V14.00,2013-04-06 20:42:00,
2013-04-06 16:43:00,54.4,25.2,29.91,ESE,123,11.0,20.0,32,0.00,,---,0.00,VWS V14.00,2013-04-06 20:43:00,
2013-04-06 16:44:00,54.4,25.2,29.91,SE,124,11.0,20.0,32,0.00,,---,0.00,VWS V14.00,2013-04-06 20:44:00,
2013-04-06 16:45:00,54.2,25.0,29.91,East,82,9.0,20.0,32,0.00,,---,0.00,VWS V14.00,2013-04-06 20:45:00,
2013-04-06 16:47:00,54.2,26.5,29.90,SSE,158,9.0,20.0,34,0.00,,---,0.00,VWS V14.00,2013-04-06 20:47:00,
2013-04-06 16:48:00,54.1,25.6,29.90,SE,144,6.0,20.0,33,0.00,,---,0.00,VWS V14.00,2013-04-06 20:48:00,
2013-04-06 16:49:00,54.2,25.7,29.90,ESE,117,10.0,20.0,33,0.00,,---,0.00,VWS V14.00,2013-04-06 20:49:00,
2013-04-06 16:50:00,54.2,26.5,29.90,ESE,117,9.0,20.0,34,0.00,,---,0.00,VWS V14.00,2013-04-06 20:50:00,
2013-04-06 16:52:00,54.2,26.5,29.90,SE,141,4.0,20.0,34,0.00,,---,0.00,VWS V14.00,2013-04-06 20:52:00,
2013-04-06 16:54:00,54.4,27.3,29.90,SE,145,7.0,20.0,35,0.00,,---,0.00,VWS V14.00,2013-04-06 20:54:00,
2013-04-06 16:56:00,54.2,25.7,29.90,SE,133,8.0,20.0,33,0.00,,---,0.00,VWS V14.00,2013-04-06 20:56:00,
2013-04-06 16:57:00,54.1,26.4,29.90,SSE,147,6.0,20.0,34,0.00,,---,0.00,VWS V14.00,2013-04-06 20:57:00,
2013-04-06 16:59:00,53.9,26.9,29.90,SSE,147,9.0,20.0,35,0.00,,---,0.00,VWS V14.00,2013-04-06 20:59:00,
2013-04-06 17:01:00,53.6,25.9,29.89,SE,143,8.0,13.0,34,0.00,,---,0.00,VWS V14.00,2013-04-06 21:01:00,
2013-04-06 17:02:00,53.5,25.8,29.89,SE,131,9.0,16.0,34,0.00,,---,0.00,VWS V14.00,2013-04-06 21:02:00,
2013-04-06 17:04:00,53.3,25.7,29.89,SSE,157,14.0,16.0,34,0.00,,---,0.00,VWS V14.00,2013-04-06 21:04:00,
2013-04-06 17:06:00,53.3,26.4,29.89,SE,126,4.0,16.0,35,0.00,,---,0.00,VWS V14.00,2013-04-06 21:06:00,
2013-04-06 17:08:00,53.5,27.9,29.89,SE,130,8.0,16.0,37,0.00,,---,0.00,VWS V14.00,2013-04-06 21:08:00,
2013-04-06 17:09:00,53.5,26.5,29.89,SE,133,11.0,17.0,35,0.00,,---,0.00,VWS V14.00,2013-04-06 21:09:00,
2013-04-06 17:10:00,53.5,26.5,29.89,ESE,119,8.0,17.0,35,0.00,,---,0.00,VWS V14.00,2013-04-06 21:10:00,
2013-04-06 17:11:00,53.3,26.4,29.89,SE,136,14.0,17.0,35,0.00,,---,0.00,VWS V14.00,2013-04-06 21:11:00,
2013-04-06 17:14:00,53.2,26.3,29.89,SSE,165,4.0,17.0,35,0.00,,---,0.00,VWS V14.00,2013-04-06 21:14:00,
2013-04-06 17:15:00,53.2,27.0,29.89,SE,126,8.0,17.0,36,0.00,,---,0.00,VWS V14.00,2013-04-06 21:15:00,
2013-04-06 17:16:00,53.2,26.3,29.88,SE,143,11.0,17.0,35,0.00,,---,0.00,VWS V14.00,2013-04-06 21:16:00,
2013-04-06 17:20:00,53.1,25.5,29.88,SSE,147,7.0,17.0,34,0.00,,---,0.00,VWS V14.00,2013-04-06 21:20:00,
2013-04-06 17:21:00,53.1,25.5,29.88,SE,133,10.0,17.0,34,0.00,,---,0.00,VWS V14.00,2013-04-06 21:21:00,
2013-04-06 17:25:00,53.2,25.6,29.88,SE,145,6.0,17.0,34,0.00,,---,0.00,VWS V14.00,2013-04-06 21:25:00,
2013-04-06 17:27:00,53.2,26.3,29.88,SE,144,6.0,17.0,35,0.00,,---,0.00,VWS V14.00,2013-04-06 21:27:00,
2013-04-06 17:30:00,53.1,26.2,29.88,SE,134,6.0,17.0,35,0.00,,---,0.00,VWS V14.00,2013-04-06 21:30:00,
2013-04-06 17:31:00,53.1,26.2,29.87,SE,127,13.0,17.0,35,0.00,,---,0.00,VWS V14.00,2013-04-06 21:31:00,
2013-04-06 17:32:00,53.1,26.2,29.87,SE,140,4.0,17.0,35,0.00,,---,0.00,VWS V14.00,2013-04-06 21:32:00,
2013-04-06 17:35:00,52.8,25.2,29.87,SE,133,8.0,17.0,34,0.00,,---,0.00,VWS V14.00,2013-04-06 21:35:00,
2013-04-06 17:36:00,52.8,25.9,29.87,SSE,151,13.0,17.0,35,0.00,,---,0.00,VWS V14.00,2013-04-06 21:36:00,
2013-04-06 17:37:00,52.8,25.9,29.87,SSE,151,13.0,17.0,35,0.00,,---,0.00,VWS V14.00,2013-04-06 21:37:00,
2013-04-06 17:40:00,52.8,27.3,29.87,SE,144,7.0,17.0,37,0.00,,---,0.00,VWS V14.00,2013-04-06 21:40:00,
2013-04-06 17:41:00,52.8,27.3,29.87,SSE,160,9.0,17.0,37,0.00,,---,0.00,VWS V14.00,2013-04-06 21:41:00,
2013-04-06 17:42:00,52.8,27.3,29.87,ESE,120,7.0,17.0,37,0.00,,---,0.00,VWS V14.00,2013-04-06 21:42:00,
2013-04-06 17:45:00,52.6,26.4,29.87,SE,127,9.0,17.0,36,0.00,,---,0.00,VWS V14.00,2013-04-06 21:45:00,
2013-04-06 17:46:00,52.5,26.3,29.86,SE,137,4.0,17.0,36,0.00,,---,0.00,VWS V14.00,2013-04-06 21:46:00,
2013-04-06 17:47:00,52.5,26.3,29.86,SE,136,9.0,17.0,36,0.00,,---,0.00,VWS V14.00,2013-04-06 21:47:00,
2013-04-06 17:50:00,52.3,26.8,29.86,ESE,116,13.0,17.0,37,0.00,,---,0.00,VWS V14.00,2013-04-06 21:50:00,
2013-04-06 17:52:00,52.3,26.8,29.86,East,82,13.0,17.0,37,0.00,,---,0.00,VWS V14.00,2013-04-06 21:52:00,
2013-04-06 17:55:00,52.2,27.4,29.86,ESE,117,11.0,17.0,38,0.00,,---,0.00,VWS V14.00,2013-04-06 21:55:00,
2013-04-06 17:56:00,52.2,27.4,29.86,ESE,117,14.0,17.0,38,0.00,,---,0.00,VWS V14.00,2013-04-06 21:56:00,
2013-04-06 17:57:00,52.2,27.4,29.86,SSE,151,6.0,17.0,38,0.00,,---,0.00,VWS V14.00,2013-04-06 21:57:00,
2013-04-06 18:00:00,52.2,27.4,29.86,SE,138,9.0,17.0,38,0.00,,---,0.00,VWS V14.00,2013-04-06 22:00:00,
2013-04-06 18:01:00,52.2,27.4,29.86,SSE,154,9.0,17.0,38,0.00,,---,0.00,VWS V14.00,2013-04-06 22:01:00,
2013-04-06 18:02:00,52.0,27.2,29.86,ESE,119,16.0,16.0,38,0.00,,---,0.00,VWS V14.00,2013-04-06 22:02:00,
2013-04-06 18:05:00,51.6,26.8,29.86,ESE,119,8.0,16.0,38,0.00,,---,0.00,VWS V14.00,2013-04-06 22:05:00,
2013-04-06 18:06:00,51.6,26.8,29.86,SE,145,7.0,16.0,38,0.00,,---,0.00,VWS V14.00,2013-04-06 22:06:00,
2013-04-06 18:07:00,51.4,27.3,29.86,ESE,120,8.0,16.0,39,0.00,,---,0.00,VWS V14.00,2013-04-06 22:07:00,
2013-04-06 18:08:00,51.4,27.3,29.86,ESE,112,8.0,16.0,39,0.00,,---,0.00,VWS V14.00,2013-04-06 22:08:00,
2013-04-06 18:10:00,51.4,27.3,29.86,SE,127,4.0,18.0,39,0.00,,---,0.00,VWS V14.00,2013-04-06 22:10:00,
2013-04-06 18:11:00,51.4,27.3,29.86,ESE,103,7.0,18.0,39,0.00,,---,0.00,VWS V14.00,2013-04-06 22:11:00,
2013-04-06 18:13:00,51.4,27.9,29.86,SE,145,10.0,18.0,40,0.00,,---,0.00,VWS V14.00,2013-04-06 22:13:00,
2013-04-06 18:15:00,51.3,27.2,29.86,SE,145,11.0,18.0,39,0.00,,---,0.00,VWS V14.00,2013-04-06 22:15:00,
2013-04-06 18:16:00,51.3,27.2,29.86,SE,136,11.0,18.0,39,0.00,,---,0.00,VWS V14.00,2013-04-06 22:16:00,
2013-04-06 18:18:00,51.1,27.6,29.86,ENE,78,10.0,18.0,40,0.00,,---,0.00,VWS V14.00,2013-04-06 22:18:00,
2013-04-06 18:21:00,51.0,27.5,29.86,ESE,119,6.0,18.0,40,0.00,,---,0.00,VWS V14.00,2013-04-06 22:21:00,
2013-04-06 18:23:00,50.8,28.0,29.86,SE,133,8.0,18.0,41,0.00,,---,0.00,VWS V14.00,2013-04-06 22:23:00,
2013-04-06 18:26:00,50.8,28.0,29.86,SE,144,16.0,18.0,41,0.00,,---,0.00,VWS V14.00,2013-04-06 22:26:00,
2013-04-06 18:27:00,50.8,28.0,29.86,ESE,109,6.0,18.0,41,0.00,,---,0.00,VWS V14.00,2013-04-06 22:27:00,
2013-04-06 18:28:00,50.8,28.0,29.86,SE,143,4.0,18.0,41,0.00,,---,0.00,VWS V14.00,2013-04-06 22:28:00,
2013-04-06 18:32:00,50.7,27.9,29.85,East,92,2.0,18.0,41,0.00,,---,0.00,VWS V14.00,2013-04-06 22:32:00,
2013-04-06 18:33:00,50.7,27.9,29.85,ESE,117,1.0,18.0,41,0.00,,---,0.00,VWS V14.00,2013-04-06 22:33:00,
2013-04-06 18:34:00,50.7,27.9,29.85,SE,134,8.0,18.0,41,0.00,,---,0.00,VWS V14.00,2013-04-06 22:34:00,
2013-04-06 18:37:00,50.5,28.3,29.85,SSE,150,9.0,18.0,42,0.00,,---,0.00,VWS V14.00,2013-04-06 22:37:00,
2013-04-06 18:38:00,50.5,27.7,29.85,SE,131,6.0,18.0,41,0.00,,---,0.00,VWS V14.00,2013-04-06 22:38:00,
2013-04-06 18:39:00,50.5,27.7,29.85,SSE,161,6.0,18.0,41,0.00,,---,0.00,VWS V14.00,2013-04-06 22:39:00,
2013-04-06 18:42:00,50.4,28.2,29.85,SE,127,9.0,18.0,42,0.00,,---,0.00,VWS V14.00,2013-04-06 22:42:00,
2013-04-06 18:43:00,50.4,27.6,29.85,SE,145,11.0,18.0,41,0.00,,---,0.00,VWS V14.00,2013-04-06 22:43:00,
2013-04-06 18:44:00,50.2,27.4,29.85,ESE,119,9.0,18.0,41,0.00,,---,0.00,VWS V14.00,2013-04-06 22:44:00,
2013-04-06 18:48:00,49.9,27.1,29.84,SSE,158,6.0,18.0,41,0.00,,---,0.00,VWS V14.00,2013-04-06 22:48:00,
2013-04-06 18:49:00,49.9,27.1,29.84,SE,141,6.0,18.0,41,0.00,,---,0.00,VWS V14.00,2013-04-06 22:49:00,
2013-04-06 18:53:00,49.6,28.0,29.84,SSE,151,7.0,18.0,43,0.00,,---,0.00,VWS V14.00,2013-04-06 22:53:00,
2013-04-06 18:54:00,49.6,28.0,29.84,SE,137,8.0,18.0,43,0.00,,---,0.00,VWS V14.00,2013-04-06 22:54:00,
2013-04-06 18:55:00,49.6,28.0,29.84,SE,138,10.0,18.0,43,0.00,,---,0.00,VWS V14.00,2013-04-06 22:55:00,
2013-04-06 18:58:00,49.4,27.9,29.84,SE,141,14.0,18.0,43,0.00,,---,0.00,VWS V14.00,2013-04-06 22:58:00,
2013-04-06 19:00:00,49.2,28.2,29.84,ESE,102,11.0,18.0,44,0.00,,---,0.00,VWS V14.00,2013-04-06 23:00:00,
2013-04-06 19:03:00,49.1,28.1,29.83,SSE,167,8.0,15.0,44,0.00,,---,0.00,VWS V14.00,2013-04-06 23:03:00,
2013-04-06 19:05:00,48.9,28.0,29.83,SE,137,4.0,15.0,44,0.00,,---,0.00,VWS V14.00,2013-04-06 23:05:00,
2013-04-06 19:06:00,48.9,28.0,29.83,SE,141,6.0,15.0,44,0.00,,---,0.00,VWS V14.00,2013-04-06 23:06:00,
2013-04-06 19:08:00,48.9,28.0,29.83,SE,140,6.0,15.0,44,0.00,,---,0.00,VWS V14.00,2013-04-06 23:08:00,
2013-04-06 19:10:00,48.8,28.4,29.83,SSE,150,6.0,15.0,45,0.00,,---,0.00,VWS V14.00,2013-04-06 23:10:00,
2013-04-06 19:11:00,48.8,28.4,29.83,SE,137,11.0,15.0,45,0.00,,---,0.00,VWS V14.00,2013-04-06 23:11:00,
2013-04-06 19:13:00,48.6,28.2,29.83,SSE,151,7.0,16.0,45,0.00,,---,0.00,VWS V14.00,2013-04-06 23:13:00,
2013-04-06 19:14:00,48.6,28.2,29.83,ESE,120,6.0,16.0,45,0.00,,---,0.00,VWS V14.00,2013-04-06 23:14:00,
2013-04-06 19:15:00,48.5,28.1,29.83,East,88,7.0,16.0,45,0.00,,---,0.00,VWS V14.00,2013-04-06 23:15:00,
2013-04-06 19:16:00,48.5,28.1,29.83,ESE,109,4.0,16.0,45,0.00,,---,0.00,VWS V14.00,2013-04-06 23:16:00,
2013-04-06 19:19:00,48.3,28.0,29.83,South,172,7.0,16.0,45,0.00,,---,0.00,VWS V14.00,2013-04-06 23:19:00,
2013-04-06 19:20:00,48.3,28.0,29.83,SE,140,6.0,16.0,45,0.00,,---,0.00,VWS V14.00,2013-04-06 23:20:00,
2013-04-06 19:22:00,48.2,27.9,29.83,SE,137,11.0,16.0,45,0.00,,---,0.00,VWS V14.00,2013-04-06 23:22:00,
2013-04-06 19:24:00,48.0,28.2,29.83,SE,138,11.0,16.0,46,0.00,,---,0.00,VWS V14.00,2013-04-06 23:24:00,
2013-04-06 19:25:00,48.0,28.2,29.83,SE,136,9.0,16.0,46,0.00,,---,0.00,VWS V14.00,2013-04-06 23:25:00,
2013-04-06 19:27:00,48.0,28.2,29.83,SE,133,2.0,16.0,46,0.00,,---,0.00,VWS V14.00,2013-04-06 23:27:00,
2013-04-06 19:30:00,47.9,28.1,29.83,SE,130,6.0,16.0,46,0.00,,---,0.00,VWS V14.00,2013-04-06 23:30:00,
2013-04-06 19:31:00,47.9,28.1,29.83,East,100,4.0,16.0,46,0.00,,---,0.00,VWS V14.00,2013-04-06 23:31:00,
2013-04-06 19:33:00,47.7,28.5,29.83,SE,141,2.0,16.0,47,0.00,,---,0.00,VWS V14.00,2013-04-06 23:33:00,
2013-04-06 19:35:00,47.7,28.5,29.83,SE,140,6.0,16.0,47,0.00,,---,0.00,VWS V14.00,2013-04-06 23:35:00,
2013-04-06 19:36:00,47.6,28.4,29.83,East,100,10.0,17.0,47,0.00,,---,0.00,VWS V14.00,2013-04-06 23:36:00,
2013-04-06 19:39:00,47.4,28.2,29.83,SE,126,8.0,17.0,47,0.00,,---,0.00,VWS V14.00,2013-04-06 23:39:00,
2013-04-06 19:40:00,47.4,28.2,29.83,SE,133,6.0,17.0,47,0.00,,---,0.00,VWS V14.00,2013-04-06 23:40:00,
2013-04-06 19:41:00,47.3,28.1,29.83,SE,126,4.0,17.0,47,0.00,,---,0.00,VWS V14.00,2013-04-06 23:41:00,
2013-04-06 19:44:00,47.1,27.9,29.83,SE,138,11.0,17.0,47,0.00,,---,0.00,VWS V14.00,2013-04-06 23:44:00,
2013-04-06 19:45:00,47.1,27.9,29.83,SE,138,6.0,17.0,47,0.00,,---,0.00,VWS V14.00,2013-04-06 23:45:00,
2013-04-06 19:47:00,47.0,28.3,29.83,ESE,120,7.0,17.0,48,0.00,,---,0.00,VWS V14.00,2013-04-06 23:47:00,
2013-04-06 19:49:00,46.8,28.2,29.83,SE,127,10.0,17.0,48,0.00,,---,0.00,VWS V14.00,2013-04-06 23:49:00,
2013-04-06 19:50:00,46.8,28.2,29.83,SE,126,6.0,17.0,48,0.00,,---,0.00,VWS V14.00,2013-04-06 23:50:00,
2013-04-06 19:53:00,46.8,28.2,29.83,SE,143,7.0,17.0,48,0.00,,---,0.00,VWS V14.00,2013-04-06 23:53:00,
2013-04-06 19:55:00,46.7,28.6,29.83,SE,130,2.0,17.0,49,0.00,,---,0.00,VWS V14.00,2013-04-06 23:55:00,
2013-04-06 19:58:00,46.7,28.6,29.83,ESE,120,2.0,17.0,49,0.00,,---,0.00,VWS V14.00,2013-04-06 23:58:00,
2013-04-06 20:00:00,46.5,28.4,29.83,SE,137,2.0,17.0,49,0.00,,---,0.00,VWS V14.00,2013-04-07 00:00:00,
2013-04-06 20:03:00,46.4,28.3,29.83,SSE,148,6.0,10.0,49,0.00,,---,0.00,VWS V14.00,2013-04-07 00:03:00,
2013-04-06 20:05:00,46.4,28.8,29.83,SE,134,6.0,10.0,50,0.00,,---,0.00,VWS V14.00,2013-04-07 00:05:00,
2013-04-06 20:07:00,46.2,28.6,29.83,ESE,120,4.0,10.0,50,0.00,,---,0.00,VWS V14.00,2013-04-07 00:07:00,
2013-04-06 20:08:00,46.2,28.6,29.83,SE,130,4.0,10.0,50,0.00,,---,0.00,VWS V14.00,2013-04-07 00:08:00,
2013-04-06 20:10:00,46.2,28.6,29.83,SE,127,1.0,10.0,50,0.00,,---,0.00,VWS V14.00,2013-04-07 00:10:00,
2013-04-06 20:12:00,46.2,28.6,29.83,SE,131,4.0,10.0,50,0.00,,---,0.00,VWS V14.00,2013-04-07 00:12:00,
2013-04-06 20:13:00,46.1,28.5,29.83,SE,141,6.0,10.0,50,0.00,,---,0.00,VWS V14.00,2013-04-07 00:13:00,
2013-04-06 20:15:00,46.1,28.5,29.83,ESE,113,2.0,10.0,50,0.00,,---,0.00,VWS V14.00,2013-04-07 00:15:00,
2013-04-06 20:16:00,46.1,29.0,29.82,SE,138,0.0,10.0,51,0.00,,---,0.00,VWS V14.00,2013-04-07 00:16:00,
2013-04-06 20:17:00,46.1,29.0,29.82,SE,138,0.0,10.0,51,0.00,,---,0.00,VWS V14.00,2013-04-07 00:17:00,
2013-04-06 20:18:00,46.0,28.9,29.82,SE,138,0.0,10.0,51,0.00,,---,0.00,VWS V14.00,2013-04-07 00:18:00,
2013-04-06 20:20:00,46.0,28.9,29.82,SE,134,6.0,10.0,51,0.00,,---,0.00,VWS V14.00,2013-04-07 00:20:00,
2013-04-06 20:22:00,46.0,28.9,29.82,ESE,120,4.0,10.0,51,0.00,,---,0.00,VWS V14.00,2013-04-07 00:22:00,
2013-04-06 20:23:00,46.0,28.9,29.82,ESE,110,4.0,10.0,51,0.00,,---,0.00,VWS V14.00,2013-04-07 00:23:00,
2013-04-06 20:25:00,45.8,29.2,29.82,SE,141,8.0,10.0,52,0.00,,---,0.00,VWS V14.00,2013-04-07 00:25:00,
2013-04-06 20:27:00,45.8,29.2,29.82,SE,130,6.0,10.0,52,0.00,,---,0.00,VWS V14.00,2013-04-07 00:27:00,
2013-04-06 20:28:00,45.8,29.2,29.82,ESE,113,6.0,10.0,52,0.00,,---,0.00,VWS V14.00,2013-04-07 00:28:00,
2013-04-06 20:30:00,45.7,29.1,29.82,ESE,119,4.0,10.0,52,0.00,,---,0.00,VWS V14.00,2013-04-07 00:30:00,
2013-04-06 20:32:00,45.7,29.1,29.82,SE,136,2.0,10.0,52,0.00,,---,0.00,VWS V14.00,2013-04-07 00:32:00,
2013-04-06 20:33:00,45.7,29.1,29.82,SE,137,2.0,10.0,52,0.00,,---,0.00,VWS V14.00,2013-04-07 00:33:00,
2013-04-06 20:35:00,45.7,29.1,29.82,SE,137,2.0,10.0,52,0.00,,---,0.00,VWS V14.00,2013-04-07 00:35:00,
2013-04-06 20:37:00,45.5,28.9,29.82,SE,136,6.0,10.0,52,0.00,,---,0.00,VWS V14.00,2013-04-07 00:37:00,
2013-04-06 20:38:00,45.5,28.9,29.82,SSE,148,6.0,10.0,52,0.00,,---,0.00,VWS V14.00,2013-04-07 00:38:00,
2013-04-06 20:41:00,45.5,28.9,29.82,SE,127,6.0,10.0,52,0.00,,---,0.00,VWS V14.00,2013-04-07 00:41:00,
2013-04-06 20:43:00,45.4,29.3,29.82,SE,141,8.0,10.0,53,0.00,,---,0.00,VWS V14.00,2013-04-07 00:43:00,
2013-04-06 20:44:00,45.4,29.3,29.82,ESE,110,6.0,10.0,53,0.00,,---,0.00,VWS V14.00,2013-04-07 00:44:00,
2013-04-06 20:46:00,45.4,29.3,29.82,ESE,119,1.0,10.0,53,0.00,,---,0.00,VWS V14.00,2013-04-07 00:46:00,
2013-04-06 20:48:00,45.2,29.1,29.82,ESE,123,6.0,10.0,53,0.00,,---,0.00,VWS V14.00,2013-04-07 00:48:00,
2013-04-06 20:49:00,45.2,29.1,29.82,SE,136,6.0,10.0,53,0.00,,---,0.00,VWS V14.00,2013-04-07 00:49:00,
2013-04-06 20:50:00,45.2,29.1,29.82,SE,130,7.0,10.0,53,0.00,,---,0.00,VWS V14.00,2013-04-07 00:50:00,
2013-04-06 20:51:00,45.2,29.1,29.82,SE,136,6.0,10.0,53,0.00,,---,0.00,VWS V14.00,2013-04-07 00:51:00,
2013-04-06 20:54:00,45.2,29.1,29.82,SE,143,7.0,14.0,53,0.00,,---,0.00,VWS V14.00,2013-04-07 00:54:00,
2013-04-06 20:55:00,45.2,29.1,29.82,ESE,113,6.0,14.0,53,0.00,,---,0.00,VWS V14.00,2013-04-07 00:55:00,
2013-04-06 20:57:00,45.2,29.1,29.82,SSE,158,7.0,14.0,53,0.00,,---,0.00,VWS V14.00,2013-04-07 00:57:00,
2013-04-06 20:59:00,45.1,29.0,29.82,SE,141,8.0,14.0,53,0.00,,---,0.00,VWS V14.00,2013-04-07 00:59:00,
2013-04-06 21:00:00,45.1,29.0,29.82,SE,145,4.0,14.0,53,0.00,,---,0.00,VWS V14.00,2013-04-07 01:00:00,
2013-04-06 21:02:00,45.1,29.0,29.81,SE,137,4.0,7.0,53,0.00,,---,0.00,VWS V14.00,2013-04-07 01:02:00,
2013-04-06 21:04:00,45.1,29.0,29.81,SE,141,6.0,7.0,53,0.00,,---,0.00,VWS V14.00,2013-04-07 01:04:00,
2013-04-06 21:05:00,45.1,29.0,29.81,ESE,117,1.0,7.0,53,0.00,,---,0.00,VWS V14.00,2013-04-07 01:05:00,
2013-04-06 21:07:00,45.1,29.0,29.81,SE,140,4.0,8.0,53,0.00,,---,0.00,VWS V14.00,2013-04-07 01:07:00,
2013-04-06 21:09:00,45.1,29.0,29.81,SE,133,6.0,10.0,53,0.00,,---,0.00,VWS V14.00,2013-04-07 01:09:00,
2013-04-06 21:10:00,45.1,29.0,29.81,SE,134,7.0,10.0,53,0.00,,---,0.00,VWS V14.00,2013-04-07 01:10:00,
2013-04-06 21:11:00,45.1,29.0,29.81,ESE,119,8.0,10.0,53,0.00,,---,0.00,VWS V14.00,2013-04-07 01:11:00,
2013-04-06 21:12:00,45.2,29.1,29.81,SE,131,4.0,10.0,53,0.00,,---,0.00,VWS V14.00,2013-04-07 01:12:00,
2013-04-06 21:15:00,45.2,29.1,29.81,ESE,119,8.0,10.0,53,0.00,,---,0.00,VWS V14.00,2013-04-07 01:15:00,
2013-04-06 21:16:00,45.2,29.1,29.80,SE,127,7.0,10.0,53,0.00,,---,0.00,VWS V14.00,2013-04-07 01:16:00,
2013-04-06 21:17:00,45.2,29.1,29.80,SE,131,4.0,10.0,53,0.00,,---,0.00,VWS V14.00,2013-04-07 01:17:00,
2013-04-06 21:20:00,45.2,29.1,29.80,ESE,123,7.0,10.0,53,0.00,,---,0.00,VWS V14.00,2013-04-07 01:20:00,
2013-04-06 21:21:00,45.1,29.0,29.80,SE,136,7.0,10.0,53,0.00,,---,0.00,VWS V14.00,2013-04-07 01:21:00,
2013-04-06 21:23:00,45.1,29.5,29.80,SE,130,0.0,10.0,54,0.00,,---,0.00,VWS V14.00,2013-04-07 01:23:00,
2013-04-06 21:25:00,45.1,29.5,29.80,ESE,120,8.0,10.0,54,0.00,,---,0.00,VWS V14.00,2013-04-07 01:25:00,
2013-04-06 21:26:00,45.1,29.5,29.80,ESE,112,8.0,10.0,54,0.00,,---,0.00,VWS V14.00,2013-04-07 01:26:00,
2013-04-06 21:27:00,45.1,29.5,29.80,SE,144,4.0,10.0,54,0.00,,---,0.00,VWS V14.00,2013-04-07 01:27:00,
2013-04-06 21:28:00,45.1,29.5,29.80,ESE,116,9.0,11.0,54,0.00,,---,0.00,VWS V14.00,2013-04-07 01:28:00,
2013-04-06 21:30:00,44.9,29.7,29.78,SE,136,1.0,11.0,55,0.00,,---,0.00,VWS V14.00,2013-04-07 01:30:00,
2013-04-06 21:31:00,44.9,29.7,29.78,ESE,119,4.0,11.0,55,0.00,,---,0.00,VWS V14.00,2013-04-07 01:31:00,
2013-04-06 21:32:00,44.9,29.7,29.78,SSE,157,4.0,11.0,55,0.00,,---,0.00,VWS V14.00,2013-04-07 01:32:00,
2013-04-06 21:34:00,44.9,29.7,29.78,SE,126,7.0,11.0,55,0.00,,---,0.00,VWS V14.00,2013-04-07 01:34:00,
2013-04-06 21:35:00,44.9,29.7,29.78,SE,136,6.0,11.0,55,0.00,,---,0.00,VWS V14.00,2013-04-07 01:35:00,
2013-04-06 21:36:00,44.9,29.7,29.78,SE,124,2.0,11.0,55,0.00,,---,0.00,VWS V14.00,2013-04-07 01:36:00,
2013-04-06 21:37:00,44.9,29.3,29.78,SE,137,8.0,11.0,54,0.00,,---,0.00,VWS V14.00,2013-04-07 01:37:00,
2013-04-06 21:39:00,44.8,29.6,29.78,SE,137,4.0,11.0,55,0.00,,---,0.00,VWS V14.00,2013-04-07 01:39:00,
2013-04-06 21:41:00,44.8,29.6,29.78,SE,130,2.0,11.0,55,0.00,,---,0.00,VWS V14.00,2013-04-07 01:41:00,
2013-04-06 21:42:00,44.8,29.6,29.78,SE,126,7.0,14.0,55,0.00,,---,0.00,VWS V14.00,2013-04-07 01:42:00,
2013-04-06 21:45:00,44.8,29.6,29.78,ESE,112,8.0,14.0,55,0.00,,---,0.00,VWS V14.00,2013-04-07 01:45:00,
2013-04-06 21:46:00,44.8,29.6,29.78,SE,131,2.0,14.0,55,0.00,,---,0.00,VWS V14.00,2013-04-07 01:46:00,
2013-04-06 21:48:00,44.8,29.6,29.78,ESE,120,1.0,14.0,55,0.00,,---,0.00,VWS V14.00,2013-04-07 01:48:00,
2013-04-06 21:50:00,44.8,29.6,29.78,ESE,120,6.0,14.0,55,0.00,,---,0.00,VWS V14.00,2013-04-07 01:50:00,
2013-04-06 21:51:00,44.8,29.6,29.78,SE,127,2.0,14.0,55,0.00,,---,0.00,VWS V14.00,2013-04-07 01:51:00,
2013-04-06 21:53:00,44.8,29.6,29.78,SE,136,2.0,14.0,55,0.00,,---,0.00,VWS V14.00,2013-04-07 01:53:00,
2013-04-06 21:55:00,44.6,29.5,29.78,SE,134,6.0,14.0,55,0.00,,---,0.00,VWS V14.00,2013-04-07 01:55:00,
2013-04-06 21:56:00,44.6,29.5,29.78,SSE,158,7.0,14.0,55,0.00,,---,0.00,VWS V14.00,2013-04-07 01:56:00,
2013-04-06 21:57:00,44.6,29.5,29.78,SSE,160,1.0,14.0,55,0.00,,---,0.00,VWS V14.00,2013-04-07 01:57:00,
2013-04-06 21:58:00,44.8,29.6,29.78,SE,136,10.0,14.0,55,0.00,,---,0.00,VWS V14.00,2013-04-07 01:58:00,
2013-04-06 22:00:00,44.8,29.2,29.78,SE,133,8.0,14.0,54,0.00,,---,0.00,VWS V14.00,2013-04-07 02:00:00,
2013-04-06 22:02:00,44.8,29.2,29.78,SE,144,1.0,4.0,54,0.00,,---,0.00,VWS V14.00,2013-04-07 02:02:00,
2013-04-06 22:03:00,44.8,29.2,29.78,SSE,147,4.0,7.0,54,0.00,,---,0.00,VWS V14.00,2013-04-07 02:03:00,
2013-04-06 22:05:00,44.8,29.2,29.78,SSE,160,6.0,8.0,54,0.00,,---,0.00,VWS V14.00,2013-04-07 02:05:00,
2013-04-06 22:07:00,44.8,29.2,29.78,SE,144,6.0,9.0,54,0.00,,---,0.00,VWS V14.00,2013-04-07 02:07:00,
2013-04-06 22:08:00,44.8,29.2,29.78,SSE,148,0.0,9.0,54,0.00,,---,0.00,VWS V14.00,2013-04-07 02:08:00,
2013-04-06 22:10:00,44.8,29.2,29.78,SE,138,4.0,9.0,54,0.00,,---,0.00,VWS V14.00,2013-04-07 02:10:00,
2013-04-06 22:12:00,44.8,29.2,29.78,SE,133,4.0,9.0,54,0.00,,---,0.00,VWS V14.00,2013-04-07 02:12:00,
2013-04-06 22:13:00,44.8,29.2,29.78,SE,127,6.0,9.0,54,0.00,,---,0.00,VWS V14.00,2013-04-07 02:13:00,
2013-04-06 22:15:00,44.8,29.2,29.77,SE,137,0.0,9.0,54,0.00,,---,0.00,VWS V14.00,2013-04-07 02:15:00,
2013-04-06 22:17:00,44.8,29.2,29.77,SE,143,2.0,10.0,54,0.00,,---,0.00,VWS V14.00,2013-04-07 02:17:00,
2013-04-06 22:18:00,44.8,29.2,29.77,ESE,113,0.0,10.0,54,0.00,,---,0.00,VWS V14.00,2013-04-07 02:18:00,
2013-04-06 22:21:00,44.8,29.2,29.77,SSE,155,6.0,10.0,54,0.00,,---,0.00,VWS V14.00,2013-04-07 02:21:00,
2013-04-06 22:22:00,44.8,29.2,29.77,SE,130,10.0,10.0,54,0.00,,---,0.00,VWS V14.00,2013-04-07 02:22:00,
2013-04-06 22:23:00,44.8,29.2,29.77,SE,141,4.0,10.0,54,0.00,,---,0.00,VWS V14.00,2013-04-07 02:23:00,
2013-04-06 22:26:00,44.8,29.6,29.77,SE,145,0.0,10.0,55,0.00,,---,0.00,VWS V14.00,2013-04-07 02:26:00,
2013-04-06 22:27:00,44.8,29.6,29.77,ESE,120,1.0,10.0,55,0.00,,---,0.00,VWS V14.00,2013-04-07 02:27:00,
2013-04-06 22:28:00,44.8,29.6,29.77,ESE,120,2.0,10.0,55,0.00,,---,0.00,VWS V14.00,2013-04-07 02:28:00,
2013-04-06 22:32:00,44.8,29.6,29.76,SE,141,0.0,10.0,55,0.00,,---,0.00,VWS V14.00,2013-04-07 02:32:00,
2013-04-06 22:33:00,44.8,29.6,29.76,SE,127,4.0,10.0,55,0.00,,---,0.00,VWS V14.00,2013-04-07 02:33:00,
2013-04-06 22:37:00,44.6,29.5,29.76,ESE,120,4.0,10.0,55,0.00,,---,0.00,VWS V14.00,2013-04-07 02:37:00,
2013-04-06 22:38:00,44.6,29.5,29.76,ESE,113,6.0,10.0,55,0.00,,---,0.00,VWS V14.00,2013-04-07 02:38:00,
2013-04-06 22:43:00,44.6,29.5,29.76,SE,131,6.0,10.0,55,0.00,,---,0.00,VWS V14.00,2013-04-07 02:43:00,
2013-04-06 22:48:00,44.6,29.5,29.75,SE,143,2.0,10.0,55,0.00,,---,0.00,VWS V14.00,2013-04-07 02:48:00,
2013-04-06 22:49:00,44.6,29.5,29.75,SE,133,0.0,10.0,55,0.00,,---,0.00,VWS V14.00,2013-04-07 02:49:00,
2013-04-06 22:53:00,44.6,29.5,29.75,SE,126,2.0,10.0,55,0.00,,---,0.00,VWS V14.00,2013-04-07 02:53:00,
2013-04-06 22:55:00,44.6,29.5,29.75,SSE,147,4.0,10.0,55,0.00,,---,0.00,VWS V14.00,2013-04-07 02:55:00,
2013-04-06 22:58:00,44.6,29.5,29.75,SE,144,4.0,10.0,55,0.00,,---,0.00,VWS V14.00,2013-04-07 02:58:00,
2013-04-06 23:00:00,44.6,29.5,29.75,SE,144,2.0,10.0,55,0.00,,---,0.00,VWS V14.00,2013-04-07 03:00:00,
2013-04-06 23:03:00,44.6,29.5,29.74,SE,137,2.0,8.0,55,0.00,,---,0.00,VWS V14.00,2013-04-07 03:03:00,
2013-04-06 23:05:00,44.6,29.5,29.74,SE,138,4.0,9.0,55,0.00,,---,0.00,VWS V14.00,2013-04-07 03:05:00,
2013-04-06 23:08:00,44.6,29.5,29.74,SSE,147,1.0,9.0,55,0.00,,---,0.00,VWS V14.00,2013-04-07 03:08:00,
2013-04-06 23:10:00,44.8,29.6,29.74,SE,141,1.0,9.0,55,0.00,,---,0.00,VWS V14.00,2013-04-07 03:10:00,
2013-04-06 23:13:00,44.8,29.6,29.74,SE,141,2.0,11.0,55,0.00,,---,0.00,VWS V14.00,2013-04-07 03:13:00,
2013-04-06 23:14:00,44.8,29.6,29.74,SE,138,8.0,11.0,55,0.00,,---,0.00,VWS V14.00,2013-04-07 03:14:00,
2013-04-06 23:15:00,44.9,29.3,29.72,SE,144,4.0,11.0,54,0.00,,---,0.00,VWS V14.00,2013-04-07 03:15:00,
2013-04-06 23:18:00,44.9,29.3,29.72,SE,140,4.0,11.0,54,0.00,,---,0.00,VWS V14.00,2013-04-07 03:18:00,
2013-04-06 23:19:00,44.9,29.3,29.72,SE,140,6.0,11.0,54,0.00,,---,0.00,VWS V14.00,2013-04-07 03:19:00,
2013-04-06 23:21:00,44.9,29.3,29.72,SE,141,1.0,11.0,54,0.00,,---,0.00,VWS V14.00,2013-04-07 03:21:00,
2013-04-06 23:23:00,45.1,29.0,29.72,SSE,148,6.0,11.0,53,0.00,,---,0.00,VWS V14.00,2013-04-07 03:23:00,
2013-04-06 23:24:00,45.1,29.0,29.72,SSE,148,4.0,11.0,53,0.00,,---,0.00,VWS V14.00,2013-04-07 03:24:00,
2013-04-06 23:26:00,45.1,29.0,29.72,SE,138,7.0,11.0,53,0.00,,---,0.00,VWS V14.00,2013-04-07 03:26:00,
2013-04-06 23:29:00,45.2,29.1,29.72,SE,138,1.0,11.0,53,0.00,,---,0.00,VWS V14.00,2013-04-07 03:29:00,
2013-04-06 23:30:00,45.2,29.1,29.72,SE,127,2.0,11.0,53,0.00,,---,0.00,VWS V14.00,2013-04-07 03:30:00,
2013-04-06 23:31:00,45.2,29.1,29.72,SSE,150,2.0,11.0,53,0.00,,---,0.00,VWS V14.00,2013-04-07 03:31:00,
2013-04-06 23:34:00,45.4,29.3,29.72,ESE,120,4.0,11.0,53,0.00,,---,0.00,VWS V14.00,2013-04-07 03:34:00,
2013-04-06 23:35:00,45.4,29.3,29.72,SE,144,2.0,11.0,53,0.00,,---,0.00,VWS V14.00,2013-04-07 03:35:00,
2013-04-06 23:36:00,45.4,28.8,29.72,SE,143,2.0,11.0,52,0.00,,---,0.00,VWS V14.00,2013-04-07 03:36:00,
2013-04-06 23:39:00,45.4,28.8,29.72,SE,130,2.0,11.0,52,0.00,,---,0.00,VWS V14.00,2013-04-07 03:39:00,
2013-04-06 23:40:00,45.5,28.9,29.72,SE,136,6.0,11.0,52,0.00,,---,0.00,VWS V14.00,2013-04-07 03:40:00,
2013-04-06 23:41:00,45.5,28.9,29.72,ESE,120,4.0,11.0,52,0.00,,---,0.00,VWS V14.00,2013-04-07 03:41:00,
2013-04-06 23:42:00,45.5,28.9,29.72,SE,127,4.0,11.0,52,0.00,,---,0.00,VWS V14.00,2013-04-07 03:42:00,
2013-04-06 23:44:00,45.5,28.9,29.72,SE,124,1.0,11.0,52,0.00,,---,0.00,VWS V14.00,2013-04-07 03:44:00,
2013-04-06 23:45:00,45.5,28.9,29.71,SSE,150,1.0,11.0,52,0.00,,---,0.00,VWS V14.00,2013-04-07 03:45:00,
2013-04-06 23:47:00,45.7,29.1,29.71,SE,143,2.0,11.0,52,0.00,,---,0.00,VWS V14.00,2013-04-07 03:47:00,
2013-04-06 23:50:00,45.7,29.1,29.71,SE,143,2.0,11.0,52,0.00,,---,0.00,VWS V14.00,2013-04-07 03:50:00,
2013-04-06 23:52:00,45.7,29.1,29.71,SE,127,6.0,11.0,52,0.00,,---,0.00,VWS V14.00,2013-04-07 03:52:00,
2013-04-06 23:55:00,45.8,28.7,29.71,SE,134,2.0,11.0,51,0.00,,---,0.00,VWS V14.00,2013-04-07 03:55:00,
2013-04-06 23:57:00,45.8,28.7,29.71,SSE,147,0.0,11.0,51,0.00,,---,0.00,VWS V14.00,2013-04-07 03:57:00,